Wetterdaten: Samstag, 03.01.2026
Datum Zeit Temp. Aussen Temp. o. S. Temp +5cm Feuchte Auss Luftdruck Regen Sonnenschein Regendauer Solar Windböen Empfang
03.01.2026 00:00 0,6 °C 0,0 °C -3,3 °C 95 % 1003,6 hPa 0,0 l/m² 0 min 0 min 0 W/m² 12,9 km/h (3 Bft) 80,85 %
03.01.2026 00:02 0,6 °C 0,0 °C -3,3 °C 96 % 1003,6 hPa 0,0 l/m² 0 min 0 min 0 W/m² 12,9 km/h (3 Bft) 43,24 %
03.01.2026 00:04 0,6 °C 0,0 °C -3,3 °C 96 % 1003,6 hPa 0,0 l/m² 0 min 0 min 0 W/m² 16,1 km/h (3 Bft) 97,78 %
03.01.2026 00:07 0,6 °C 0,0 °C -3,3 °C 96 % 1003,6 hPa 0,0 l/m² 0 min 0 min 0 W/m² 12,9 km/h (3 Bft) 97,78 %
03.01.2026 00:08 0,6 °C 0,0 °C -3,3 °C 96 % 1003,7 hPa 0,0 l/m² 0 min 0 min 0 W/m² 16,1 km/h (3 Bft) 95,74 %
03.01.2026 00:12 0,6 °C 0,0 °C -3,3 °C 96 % 1003,8 hPa 0,0 l/m² 0 min 0 min 0 W/m² 25,7 km/h (4 Bft) 100,00 %
03.01.2026 00:14 0,6 °C 0,0 °C -3,3 °C 96 % 1003,7 hPa 0,0 l/m² 0 min 0 min 0 W/m² 19,3 km/h (3 Bft) 100,00 %
03.01.2026 00:16 0,6 °C 0,0 °C -3,3 °C 96 % 1003,7 hPa 0,0 l/m² 0 min 0 min 0 W/m² 6,4 km/h (2 Bft) 100,00 %
03.01.2026 00:22 0,6 °C 0,0 °C -3,3 °C 96 % 1003,8 hPa 0,0 l/m² 0 min 0 min 0 W/m² 22,5 km/h (4 Bft) 98,00 %
03.01.2026 00:24 0,6 °C 0,0 °C -3,3 °C 96 % 1003,8 hPa 0,0 l/m² 0 min 0 min 0 W/m² 6,4 km/h (2 Bft) 97,50 %
03.01.2026 00:26 0,6 °C 0,0 °C -3,3 °C 96 % 1003,8 hPa 0,0 l/m² 0 min 0 min 0 W/m² 16,1 km/h (3 Bft) 97,83 %
03.01.2026 00:28 0,6 °C 0,0 °C -3,3 °C 96 % 1003,8 hPa 0,0 l/m² 0 min 0 min 0 W/m² 12,9 km/h (3 Bft) 95,74 %
03.01.2026 00:30 0,6 °C 0,0 °C -3,3 °C 95 % 1003,8 hPa 0,0 l/m² 0 min 0 min 0 W/m² 9,7 km/h (2 Bft) 97,83 %
03.01.2026 00:32 0,6 °C 0,0 °C -3,3 °C 96 % 1003,7 hPa 0,0 l/m² 0 min 0 min 0 W/m² 9,7 km/h (2 Bft) 97,92 %
03.01.2026 00:34 0,6 °C 0,0 °C -3,3 °C 96 % 1003,8 hPa 0,0 l/m² 0 min 0 min 0 W/m² 19,3 km/h (3 Bft) 95,74 %
03.01.2026 00:36 0,6 °C 0,0 °C -3,3 °C 96 % 1003,7 hPa 0,0 l/m² 0 min 0 min 0 W/m² 12,9 km/h (3 Bft) 97,83 %
03.01.2026 00:38 0,6 °C 0,0 °C -3,3 °C 96 % 1003,8 hPa 0,0 l/m² 0 min 0 min 0 W/m² 19,3 km/h (3 Bft) 97,62 %
03.01.2026 00:40 0,6 °C 0,0 °C -3,3 °C 96 % 1003,7 hPa 0,0 l/m² 0 min 0 min 0 W/m² 12,9 km/h (3 Bft) 98,08 %
03.01.2026 00:42 0,5 °C 0,0 °C -3,3 °C 96 % 1003,7 hPa 0,0 l/m² 0 min 0 min 0 W/m² 12,9 km/h (3 Bft) 97,87 %
03.01.2026 00:44 0,5 °C 0,0 °C -3,3 °C 96 % 1003,7 hPa 0,0 l/m² 0 min 0 min 0 W/m² 22,5 km/h (4 Bft) 97,67 %
03.01.2026 00:46 0,5 °C 0,0 °C -3,3 °C 96 % 1003,8 hPa 0,0 l/m² 0 min 0 min 0 W/m² 19,3 km/h (3 Bft) 98,04 %
03.01.2026 00:48 0,5 °C 0,0 °C -3,3 °C 96 % 1003,7 hPa 0,0 l/m² 0 min 0 min 0 W/m² 19,3 km/h (3 Bft) 97,78 %
03.01.2026 00:50 0,5 °C 0,0 °C -3,3 °C 96 % 1003,7 hPa 0,0 l/m² 0 min 0 min 0 W/m² 19,3 km/h (3 Bft) 100,00 %
03.01.2026 00:52 0,5 °C 0,0 °C -3,3 °C 96 % 1003,7 hPa 0,0 l/m² 0 min 0 min 0 W/m² 12,9 km/h (3 Bft) 97,83 %
03.01.2026 00:54 0,4 °C 0,0 °C -3,3 °C 96 % 1003,7 hPa 0,0 l/m² 0 min 0 min 0 W/m² 16,1 km/h (3 Bft) 100,00 %
03.01.2026 00:56 0,4 °C 0,0 °C -3,3 °C 95 % 1003,8 hPa 0,0 l/m² 0 min 0 min 0 W/m² 6,4 km/h (2 Bft) 100,00 %
03.01.2026 00:58 0,4 °C 0,0 °C -3,3 °C 95 % 1003,8 hPa 0,0 l/m² 0 min 0 min 0 W/m² 9,7 km/h (2 Bft) 100,00 %
03.01.2026 01:00 0,4 °C 0,0 °C -3,3 °C 95 % 1003,8 hPa 0,0 l/m² 0 min 0 min 0 W/m² 16,1 km/h (3 Bft) 100,00 %
03.01.2026 01:02 0,4 °C 0,0 °C -3,3 °C 95 % 1003,8 hPa 0,0 l/m² 0 min 0 min 0 W/m² 12,9 km/h (3 Bft) 100,00 %
03.01.2026 01:04 0,4 °C 0,0 °C -3,3 °C 95 % 1003,8 hPa 0,0 l/m² 0 min 0 min 0 W/m² 19,3 km/h (3 Bft) 100,00 %
03.01.2026 01:08 0,5 °C 0,0 °C -3,3 °C 95 % 1003,7 hPa 0,0 l/m² 0 min 0 min 0 W/m² 45,1 km/h (6 Bft) 100,00 %
03.01.2026 01:10 0,4 °C 0,0 °C -3,3 °C 95 % 1003,7 hPa 0,0 l/m² 0 min 0 min 0 W/m² 16,1 km/h (3 Bft) 100,00 %
03.01.2026 01:12 0,4 °C -0,6 °C -3,3 °C 95 % 1003,8 hPa 0,0 l/m² 0 min 0 min 0 W/m² 9,7 km/h (2 Bft) 100,00 %
03.01.2026 01:14 0,4 °C -0,6 °C -3,3 °C 95 % 1003,7 hPa 0,0 l/m² 0 min 0 min 0 W/m² 9,7 km/h (2 Bft) 100,00 %
03.01.2026 01:16 0,4 °C -0,6 °C -3,3 °C 95 % 1003,8 hPa 0,0 l/m² 0 min 0 min 0 W/m² 16,1 km/h (3 Bft) 100,00 %
03.01.2026 01:18 0,4 °C -0,6 °C -3,3 °C 95 % 1003,8 hPa 0,0 l/m² 0 min 0 min 0 W/m² 16,1 km/h (3 Bft) 100,00 %
03.01.2026 01:20 0,4 °C -0,6 °C -3,3 °C 95 % 1003,9 hPa 0,0 l/m² 0 min 0 min 0 W/m² 22,5 km/h (4 Bft) 100,00 %
03.01.2026 01:22 0,4 °C -0,6 °C -3,3 °C 95 % 1003,9 hPa 0,0 l/m² 0 min 0 min 0 W/m² 16,1 km/h (3 Bft) 98,08 %
03.01.2026 01:24 0,4 °C 0,0 °C -3,3 °C 95 % 1003,9 hPa 0,0 l/m² 0 min 0 min 0 W/m² 16,1 km/h (3 Bft) 97,83 %
03.01.2026 01:26 0,4 °C 0,0 °C -3,3 °C 95 % 1003,9 hPa 0,0 l/m² 0 min 0 min 0 W/m² 12,9 km/h (3 Bft) 100,00 %
03.01.2026 01:28 0,4 °C 0,0 °C -3,3 °C 95 % 1003,9 hPa 0,0 l/m² 0 min 0 min 0 W/m² 12,9 km/h (3 Bft) 52,38 %
03.01.2026 01:30 0,3 °C -0,6 °C -3,3 °C 95 % 1003,9 hPa 0,0 l/m² 0 min 0 min 0 W/m² 12,9 km/h (3 Bft) 100,00 %
03.01.2026 01:32 0,4 °C 0,0 °C -3,3 °C 95 % 1003,9 hPa 0,0 l/m² 0 min 0 min 0 W/m² 16,1 km/h (3 Bft) 97,87 %
03.01.2026 01:34 0,4 °C 0,0 °C -3,3 °C 95 % 1003,8 hPa 0,0 l/m² 0 min 0 min 0 W/m² 12,9 km/h (3 Bft) 97,78 %
03.01.2026 01:36 0,4 °C 0,0 °C -3,3 °C 95 % 1003,8 hPa 0,0 l/m² 0 min 0 min 0 W/m² 19,3 km/h (3 Bft) 97,73 %
03.01.2026 01:38 0,4 °C 0,0 °C -3,3 °C 95 % 1003,8 hPa 0,0 l/m² 0 min 0 min 0 W/m² 12,9 km/h (3 Bft) 98,04 %
03.01.2026 01:40 0,5 °C 0,0 °C -3,3 °C 95 % 1003,9 hPa 0,0 l/m² 0 min 0 min 0 W/m² 25,7 km/h (4 Bft) 97,87 %
03.01.2026 01:42 0,5 °C 0,0 °C -3,3 °C 95 % 1003,9 hPa 0,0 l/m² 0 min 0 min 0 W/m² 12,9 km/h (3 Bft) 95,65 %
03.01.2026 01:44 0,5 °C 0,0 °C -3,3 °C 95 % 1003,8 hPa 0,0 l/m² 0 min 0 min 0 W/m² 19,3 km/h (3 Bft) 97,67 %
03.01.2026 01:46 0,4 °C 0,0 °C -3,3 °C 95 % 1003,9 hPa 0,0 l/m² 0 min 0 min 0 W/m² 16,1 km/h (3 Bft) 96,15 %
03.01.2026 01:48 0,4 °C 0,0 °C -3,3 °C 95 % 1003,9 hPa 0,0 l/m² 0 min 0 min 0 W/m² 12,9 km/h (3 Bft) 97,73 %
03.01.2026 01:50 0,4 °C 0,0 °C -3,3 °C 95 % 1003,9 hPa 0,0 l/m² 0 min 0 min 0 W/m² 22,5 km/h (4 Bft) 97,37 %
03.01.2026 01:52 0,4 °C -0,6 °C -3,3 °C 95 % 1003,9 hPa 0,0 l/m² 0 min 0 min 0 W/m² 16,1 km/h (3 Bft) 96,55 %
03.01.2026 01:54 0,4 °C -0,6 °C -3,9 °C 95 % 1003,9 hPa 0,0 l/m² 0 min 0 min 0 W/m² 12,9 km/h (3 Bft) 97,83 %
03.01.2026 01:56 0,3 °C -0,6 °C -3,9 °C 95 % 1003,9 hPa 0,0 l/m² 0 min 0 min 0 W/m² 16,1 km/h (3 Bft) 97,67 %
03.01.2026 01:58 0,3 °C -0,6 °C -3,9 °C 95 % 1003,9 hPa 0,0 l/m² 0 min 0 min 0 W/m² 6,4 km/h (2 Bft) 98,08 %
03.01.2026 02:00 0,3 °C -0,6 °C -3,9 °C 95 % 1004,0 hPa 0,0 l/m² 0 min 0 min 0 W/m² 16,1 km/h (3 Bft) 97,87 %
03.01.2026 02:02 0,3 °C -0,6 °C -3,9 °C 95 % 1004,0 hPa 0,0 l/m² 0 min 0 min 0 W/m² 12,9 km/h (3 Bft) 97,83 %
03.01.2026 02:04 0,3 °C -0,6 °C -3,9 °C 95 % 1004,0 hPa 0,0 l/m² 0 min 0 min 0 W/m² 12,9 km/h (3 Bft) 97,78 %
03.01.2026 02:06 0,2 °C -0,6 °C -3,9 °C 95 % 1004,0 hPa 0,0 l/m² 0 min 0 min 0 W/m² 16,1 km/h (3 Bft) 94,00 %
03.01.2026 02:08 0,2 °C -0,6 °C -3,3 °C 95 % 1003,9 hPa 0,0 l/m² 0 min 0 min 0 W/m² 19,3 km/h (3 Bft) 95,74 %
03.01.2026 02:10 0,2 °C -0,6 °C -3,9 °C 95 % 1003,9 hPa 0,0 l/m² 0 min 0 min 0 W/m² 3,2 km/h (1 Bft) 80,85 %
03.01.2026 02:17 0,2 °C -0,6 °C -3,9 °C 94 % 1004,0 hPa 0,0 l/m² 0 min 0 min 0 W/m² 22,5 km/h (4 Bft) 100,00 %
03.01.2026 02:18 0,2 °C -0,6 °C -3,9 °C 94 % 1003,9 hPa 0,0 l/m² 0 min 0 min 0 W/m² 16,1 km/h (3 Bft) 100,00 %
03.01.2026 02:22 0,1 °C -0,6 °C -3,9 °C 94 % 1003,9 hPa 0,0 l/m² 0 min 0 min 0 W/m² 12,9 km/h (3 Bft) 95,65 %
03.01.2026 02:24 0,1 °C -0,6 °C -3,3 °C 94 % 1003,9 hPa 0,0 l/m² 0 min 0 min 0 W/m² 16,1 km/h (3 Bft) 97,73 %
03.01.2026 02:26 0,2 °C -0,6 °C -3,3 °C 94 % 1003,9 hPa 0,0 l/m² 0 min 0 min 0 W/m² 6,4 km/h (2 Bft) 96,00 %
03.01.2026 02:28 0,2 °C -0,6 °C -3,3 °C 94 % 1003,9 hPa 0,0 l/m² 0 min 0 min 0 W/m² 16,1 km/h (3 Bft) 93,62 %
03.01.2026 02:30 0,2 °C -0,6 °C -3,3 °C 94 % 1003,8 hPa 0,0 l/m² 0 min 0 min 0 W/m² 16,1 km/h (3 Bft) 92,86 %
03.01.2026 02:32 0,2 °C -0,6 °C -3,3 °C 94 % 1003,9 hPa 0,0 l/m² 0 min 0 min 0 W/m² 12,9 km/h (3 Bft) 94,23 %
03.01.2026 02:34 0,2 °C -0,6 °C -3,3 °C 95 % 1003,9 hPa 0,0 l/m² 0 min 0 min 0 W/m² 3,2 km/h (1 Bft) 92,86 %
03.01.2026 02:36 0,2 °C -0,6 °C -3,3 °C 95 % 1003,9 hPa 0,0 l/m² 0 min 0 min 0 W/m² 12,9 km/h (3 Bft) 96,08 %
03.01.2026 02:38 0,3 °C -0,6 °C -3,3 °C 95 % 1004,0 hPa 0,0 l/m² 0 min 0 min 0 W/m² 12,9 km/h (3 Bft) 96,30 %
03.01.2026 02:40 0,3 °C -0,6 °C -3,3 °C 95 % 1004,0 hPa 0,0 l/m² 0 min 0 min 0 W/m² 9,7 km/h (2 Bft) 97,30 %
03.01.2026 02:42 0,3 °C -0,6 °C -3,3 °C 95 % 1004,0 hPa 0,0 l/m² 0 min 0 min 0 W/m² 29,0 km/h (5 Bft) 95,74 %
03.01.2026 02:44 0,3 °C -0,6 °C -3,3 °C 95 % 1004,0 hPa 0,0 l/m² 0 min 0 min 0 W/m² 16,1 km/h (3 Bft) 96,36 %
03.01.2026 02:46 0,3 °C -0,6 °C -3,3 °C 94 % 1004,0 hPa 0,0 l/m² 0 min 0 min 0 W/m² 9,7 km/h (2 Bft) 94,87 %
03.01.2026 02:50 0,3 °C -0,6 °C -3,3 °C 94 % 1004,0 hPa 0,0 l/m² 0 min 0 min 0 W/m² 19,3 km/h (3 Bft) 97,14 %
03.01.2026 02:52 0,3 °C -0,6 °C -3,3 °C 94 % 1004,0 hPa 0,0 l/m² 0 min 0 min 0 W/m² 12,9 km/h (3 Bft) 93,33 %
03.01.2026 02:54 0,3 °C -0,6 °C -3,3 °C 94 % 1004,0 hPa 0,0 l/m² 0 min 0 min 0 W/m² 16,1 km/h (3 Bft) 94,59 %
03.01.2026 02:56 0,3 °C 0,0 °C -3,3 °C 94 % 1003,9 hPa 0,0 l/m² 0 min 0 min 0 W/m² 22,5 km/h (4 Bft) 96,61 %
03.01.2026 02:58 0,3 °C 0,0 °C -3,3 °C 94 % 1004,0 hPa 0,0 l/m² 0 min 0 min 0 W/m² 12,9 km/h (3 Bft) 97,83 %
03.01.2026 03:00 0,4 °C 0,0 °C -3,3 °C 94 % 1004,0 hPa 0,0 l/m² 0 min 0 min 0 W/m² 6,4 km/h (2 Bft) 100,00 %
03.01.2026 03:02 0,4 °C 0,0 °C -3,3 °C 94 % 1004,0 hPa 0,0 l/m² 0 min 0 min 0 W/m² 6,4 km/h (2 Bft) 94,55 %
03.01.2026 03:04 0,4 °C 0,0 °C -3,3 °C 94 % 1004,1 hPa 0,0 l/m² 0 min 0 min 0 W/m² 16,1 km/h (3 Bft) 97,56 %
03.01.2026 03:10 0,4 °C -0,6 °C -3,3 °C 94 % 1004,0 hPa 0,0 l/m² 0 min 0 min 0 W/m² 12,9 km/h (3 Bft) 98,00 %
03.01.2026 03:12 0,4 °C -0,6 °C -3,3 °C 94 % 1004,0 hPa 0,0 l/m² 0 min 0 min 0 W/m² 12,9 km/h (3 Bft) 97,83 %
03.01.2026 03:14 0,3 °C -0,6 °C -3,3 °C 94 % 1004,0 hPa 0,0 l/m² 0 min 0 min 0 W/m² 12,9 km/h (3 Bft) 97,37 %
03.01.2026 03:16 0,3 °C -0,6 °C -3,3 °C 94 % 1004,1 hPa 0,0 l/m² 0 min 0 min 0 W/m² 19,3 km/h (3 Bft) 97,87 %
03.01.2026 03:18 0,3 °C -0,6 °C -3,3 °C 94 % 1004,0 hPa 0,0 l/m² 0 min 0 min 0 W/m² 9,7 km/h (2 Bft) 98,18 %
03.01.2026 03:22 0,3 °C -0,6 °C -3,3 °C 94 % 1004,0 hPa 0,0 l/m² 0 min 0 min 0 W/m² 12,9 km/h (3 Bft) 100,00 %
03.01.2026 03:24 0,2 °C -0,6 °C -3,9 °C 94 % 1003,9 hPa 0,0 l/m² 0 min 0 min 0 W/m² 6,4 km/h (2 Bft) 98,15 %
03.01.2026 03:26 0,2 °C -0,6 °C -3,9 °C 94 % 1003,8 hPa 0,0 l/m² 0 min 0 min 0 W/m² 12,9 km/h (3 Bft) 100,00 %
03.01.2026 03:28 0,2 °C -0,6 °C -3,9 °C 94 % 1003,8 hPa 0,0 l/m² 0 min 0 min 0 W/m² 19,3 km/h (3 Bft) 100,00 %
03.01.2026 03:30 0,2 °C -0,6 °C -3,9 °C 94 % 1003,8 hPa 0,0 l/m² 0 min 0 min 0 W/m² 16,1 km/h (3 Bft) 97,87 %
03.01.2026 03:32 0,1 °C -0,6 °C -3,9 °C 94 % 1003,8 hPa 0,0 l/m² 0 min 0 min 0 W/m² 6,4 km/h (2 Bft) 95,74 %
03.01.2026 03:34 0,1 °C -1,1 °C -3,9 °C 94 % 1003,8 hPa 0,0 l/m² 0 min 0 min 0 W/m² 12,9 km/h (3 Bft) 100,00 %
03.01.2026 03:36 0,1 °C -0,6 °C -3,9 °C 94 % 1003,8 hPa 0,0 l/m² 0 min 0 min 0 W/m² 9,7 km/h (2 Bft) 100,00 %
03.01.2026 03:38 0,1 °C -1,1 °C -3,9 °C 94 % 1003,8 hPa 0,0 l/m² 0 min 0 min 0 W/m² 16,1 km/h (3 Bft) 98,25 %
03.01.2026 03:40 0,1 °C -1,1 °C -3,9 °C 94 % 1003,8 hPa 0,0 l/m² 0 min 0 min 0 W/m² 12,9 km/h (3 Bft) 97,30 %
03.01.2026 03:42 0,0 °C -1,1 °C -3,9 °C 94 % 1003,8 hPa 0,0 l/m² 0 min 0 min 0 W/m² 12,9 km/h (3 Bft) 100,00 %
03.01.2026 03:44 0,0 °C -1,1 °C -3,9 °C 94 % 1003,8 hPa 0,0 l/m² 0 min 0 min 0 W/m² 3,2 km/h (1 Bft) 100,00 %
03.01.2026 03:46 -0,1 °C -1,1 °C -3,9 °C 94 % 1003,7 hPa 0,0 l/m² 0 min 0 min 0 W/m² 3,2 km/h (1 Bft) 97,62 %
03.01.2026 03:48 -0,1 °C -1,1 °C -3,9 °C 94 % 1003,7 hPa 0,0 l/m² 0 min 0 min 0 W/m² 6,4 km/h (2 Bft) 97,50 %
03.01.2026 03:50 -0,1 °C -1,1 °C -3,9 °C 94 % 1003,7 hPa 0,0 l/m² 0 min 0 min 0 W/m² 6,4 km/h (2 Bft) 94,44 %
03.01.2026 03:52 -0,1 °C -1,1 °C -3,9 °C 94 % 1003,7 hPa 0,0 l/m² 0 min 0 min 0 W/m² 6,4 km/h (2 Bft) 95,00 %
03.01.2026 03:54 -0,2 °C -1,1 °C -3,9 °C 93 % 1003,7 hPa 0,0 l/m² 0 min 0 min 0 W/m² 6,4 km/h (2 Bft) 95,74 %
03.01.2026 03:56 -0,2 °C -1,1 °C -3,9 °C 93 % 1003,7 hPa 0,0 l/m² 0 min 0 min 0 W/m² 6,4 km/h (2 Bft) 94,83 %
03.01.2026 03:58 -0,2 °C -1,1 °C -3,9 °C 93 % 1003,6 hPa 0,0 l/m² 0 min 0 min 0 W/m² 16,1 km/h (3 Bft) 95,74 %
03.01.2026 04:02 -0,2 °C -1,1 °C -3,9 °C 94 % 1003,6 hPa 0,0 l/m² 0 min 0 min 0 W/m² 6,4 km/h (2 Bft) 94,51 %
03.01.2026 04:04 -0,3 °C -1,1 °C -3,9 °C 94 % 1003,6 hPa 0,0 l/m² 0 min 0 min 0 W/m² 9,7 km/h (2 Bft) 97,50 %
03.01.2026 04:08 -0,3 °C -1,1 °C -3,9 °C 94 % 1003,6 hPa 0,0 l/m² 0 min 0 min 0 W/m² 16,1 km/h (3 Bft) 94,62 %
03.01.2026 04:10 -0,3 °C -1,1 °C -3,9 °C 94 % 1003,6 hPa 0,0 l/m² 0 min 0 min 0 W/m² 19,3 km/h (3 Bft) 95,74 %
03.01.2026 04:12 -0,3 °C -1,1 °C -3,9 °C 94 % 1003,6 hPa 0,0 l/m² 0 min 0 min 0 W/m² 12,9 km/h (3 Bft) 95,74 %
03.01.2026 04:16 -0,2 °C -1,1 °C -3,9 °C 94 % 1003,6 hPa 0,0 l/m² 0 min 0 min 0 W/m² 12,9 km/h (3 Bft) 95,74 %
03.01.2026 04:19 -0,2 °C -0,6 °C -3,9 °C 94 % 1003,5 hPa 0,0 l/m² 0 min 0 min 0 W/m² 16,1 km/h (3 Bft) 95,12 %
03.01.2026 04:20 -0,2 °C -0,6 °C -3,9 °C 94 % 1003,5 hPa 0,0 l/m² 0 min 0 min 0 W/m² 3,2 km/h (1 Bft) 96,96 %
03.01.2026 04:26 -0,2 °C -1,1 °C -3,9 °C 94 % 1003,5 hPa 0,0 l/m² 0 min 0 min 0 W/m² 16,1 km/h (3 Bft) 98,78 %
03.01.2026 04:28 -0,2 °C -1,1 °C -3,9 °C 94 % 1003,4 hPa 0,0 l/m² 0 min 0 min 0 W/m² 9,7 km/h (2 Bft) 97,67 %
03.01.2026 04:30 -0,2 °C -1,1 °C -3,9 °C 94 % 1003,6 hPa 0,0 l/m² 0 min 0 min 0 W/m² 16,1 km/h (3 Bft) 97,87 %
03.01.2026 04:32 -0,2 °C -1,1 °C -3,9 °C 94 % 1003,4 hPa 0,0 l/m² 0 min 0 min 0 W/m² 6,4 km/h (2 Bft) 97,44 %
03.01.2026 04:34 -0,2 °C -1,1 °C -3,9 °C 94 % 1003,4 hPa 0,0 l/m² 0 min 0 min 0 W/m² 29,0 km/h (5 Bft) 100,00 %
03.01.2026 04:36 -0,2 °C -1,1 °C -3,9 °C 94 % 1003,4 hPa 0,0 l/m² 0 min 0 min 0 W/m² 12,9 km/h (3 Bft) 100,00 %
03.01.2026 04:40 -0,2 °C -1,1 °C -3,9 °C 94 % 1003,4 hPa 0,0 l/m² 0 min 0 min 0 W/m² 16,1 km/h (3 Bft) 100,00 %
03.01.2026 04:42 -0,3 °C -1,1 °C -3,9 °C 94 % 1003,3 hPa 0,0 l/m² 0 min 0 min 0 W/m² 9,7 km/h (2 Bft) 97,44 %
03.01.2026 04:44 -0,3 °C -1,1 °C -3,9 °C 94 % 1003,5 hPa 0,0 l/m² 0 min 0 min 0 W/m² 19,3 km/h (3 Bft) 100,00 %
03.01.2026 04:46 -0,3 °C -1,1 °C -3,9 °C 94 % 1003,4 hPa 0,0 l/m² 0 min 0 min 0 W/m² 16,1 km/h (3 Bft) 100,00 %
03.01.2026 04:48 -0,3 °C -1,1 °C -3,9 °C 94 % 1003,5 hPa 0,0 l/m² 0 min 0 min 0 W/m² 19,3 km/h (3 Bft) 97,37 %
03.01.2026 04:50 -0,3 °C -1,1 °C -3,9 °C 94 % 1003,4 hPa 0,0 l/m² 0 min 0 min 0 W/m² 12,9 km/h (3 Bft) 100,00 %
03.01.2026 04:52 -0,3 °C -1,1 °C -3,9 °C 94 % 1003,4 hPa 0,0 l/m² 0 min 0 min 0 W/m² 12,9 km/h (3 Bft) 100,00 %
03.01.2026 04:54 -0,3 °C -1,1 °C -3,9 °C 94 % 1003,5 hPa 0,0 l/m² 0 min 0 min 0 W/m² 19,3 km/h (3 Bft) 98,28 %
03.01.2026 04:56 -0,3 °C -1,1 °C -3,9 °C 94 % 1003,4 hPa 0,0 l/m² 0 min 0 min 0 W/m² 6,4 km/h (2 Bft) 100,00 %
03.01.2026 04:58 -0,3 °C -1,1 °C -3,9 °C 94 % 1003,4 hPa 0,0 l/m² 0 min 0 min 0 W/m² 16,1 km/h (3 Bft) 100,00 %
03.01.2026 05:00 -0,2 °C -1,1 °C -3,9 °C 94 % 1003,4 hPa 0,0 l/m² 0 min 0 min 0 W/m² 22,5 km/h (4 Bft) 100,00 %
03.01.2026 05:02 -0,2 °C -1,1 °C -3,9 °C 94 % 1003,4 hPa 0,0 l/m² 0 min 0 min 0 W/m² 12,9 km/h (3 Bft) 98,31 %
03.01.2026 05:04 -0,2 °C -1,1 °C -3,9 °C 93 % 1003,3 hPa 0,0 l/m² 0 min 0 min 0 W/m² 12,9 km/h (3 Bft) 97,67 %
03.01.2026 05:08 -0,2 °C -1,1 °C -3,9 °C 93 % 1003,3 hPa 0,0 l/m² 0 min 0 min 0 W/m² 16,1 km/h (3 Bft) 100,00 %
03.01.2026 05:10 -0,2 °C -1,1 °C -3,9 °C 93 % 1003,3 hPa 0,0 l/m² 0 min 0 min 0 W/m² 16,1 km/h (3 Bft) 100,00 %
03.01.2026 05:12 -0,2 °C -1,1 °C -3,9 °C 93 % 1003,3 hPa 0,0 l/m² 0 min 0 min 0 W/m² 29,0 km/h (5 Bft) 100,00 %
03.01.2026 05:14 -0,2 °C -1,1 °C -3,9 °C 93 % 1003,2 hPa 0,0 l/m² 0 min 0 min 0 W/m² 12,9 km/h (3 Bft) 98,31 %
03.01.2026 05:16 -0,2 °C -1,1 °C -3,9 °C 93 % 1003,1 hPa 0,0 l/m² 0 min 0 min 0 W/m² 19,3 km/h (3 Bft) 97,83 %
03.01.2026 05:18 -0,2 °C -1,1 °C -3,9 °C 93 % 1003,1 hPa 0,0 l/m² 0 min 0 min 0 W/m² 9,7 km/h (2 Bft) 100,00 %
03.01.2026 05:20 -0,2 °C -0,6 °C -3,9 °C 93 % 1003,1 hPa 0,0 l/m² 0 min 0 min 0 W/m² 12,9 km/h (3 Bft) 100,00 %
03.01.2026 05:22 -0,2 °C -0,6 °C -3,9 °C 93 % 1003,1 hPa 0,0 l/m² 0 min 0 min 0 W/m² 22,5 km/h (4 Bft) 100,00 %
03.01.2026 05:24 -0,2 °C -0,6 °C -3,9 °C 93 % 1003,1 hPa 0,0 l/m² 0 min 0 min 0 W/m² 19,3 km/h (3 Bft) 100,00 %
03.01.2026 05:26 -0,1 °C -0,6 °C -3,9 °C 93 % 1003,1 hPa 0,0 l/m² 0 min 0 min 0 W/m² 22,5 km/h (4 Bft) 100,00 %
03.01.2026 05:28 -0,1 °C -0,6 °C -3,3 °C 93 % 1003,2 hPa 0,0 l/m² 0 min 0 min 0 W/m² 22,5 km/h (4 Bft) 100,00 %
03.01.2026 05:30 0,0 °C -0,6 °C -3,3 °C 93 % 1003,1 hPa 0,0 l/m² 0 min 0 min 0 W/m² 16,1 km/h (3 Bft) 100,00 %
03.01.2026 05:32 0,1 °C -0,6 °C -3,3 °C 93 % 1003,2 hPa 0,0 l/m² 0 min 0 min 0 W/m² 16,1 km/h (3 Bft) 98,28 %
03.01.2026 05:34 0,1 °C -0,6 °C -3,3 °C 93 % 1003,0 hPa 0,0 l/m² 0 min 0 min 0 W/m² 16,1 km/h (3 Bft) 100,00 %
03.01.2026 05:36 0,1 °C -0,6 °C -3,3 °C 93 % 1003,1 hPa 0,0 l/m² 0 min 0 min 0 W/m² 19,3 km/h (3 Bft) 100,00 %
03.01.2026 05:38 0,1 °C -0,6 °C -3,3 °C 93 % 1003,0 hPa 0,0 l/m² 0 min 0 min 0 W/m² 12,9 km/h (3 Bft) 96,43 %
03.01.2026 05:40 0,1 °C -0,6 °C -3,3 °C 93 % 1003,0 hPa 0,0 l/m² 0 min 0 min 0 W/m² 6,4 km/h (2 Bft) 94,74 %
03.01.2026 05:42 0,2 °C -0,6 °C -3,3 °C 92 % 1003,1 hPa 0,0 l/m² 0 min 0 min 0 W/m² 6,4 km/h (2 Bft) 59,57 %
03.01.2026 05:44 0,2 °C 0,0 °C -3,3 °C 93 % 1003,0 hPa 0,0 l/m² 0 min 0 min 0 W/m² 25,7 km/h (4 Bft) 91,84 %
03.01.2026 05:46 0,2 °C 0,0 °C -3,3 °C 92 % 1003,0 hPa 0,0 l/m² 0 min 0 min 0 W/m² 9,7 km/h (2 Bft) 97,30 %
03.01.2026 05:48 0,2 °C 0,0 °C -3,3 °C 92 % 1003,0 hPa 0,0 l/m² 0 min 0 min 0 W/m² 25,7 km/h (4 Bft) 94,44 %
03.01.2026 05:50 0,2 °C 0,0 °C -3,3 °C 92 % 1002,9 hPa 0,0 l/m² 0 min 0 min 0 W/m² 16,1 km/h (3 Bft) 95,00 %
03.01.2026 05:52 0,2 °C 0,0 °C -3,3 °C 92 % 1003,0 hPa 0,0 l/m² 0 min 0 min 0 W/m² 22,5 km/h (4 Bft) 94,64 %
03.01.2026 05:54 0,3 °C 0,0 °C -3,3 °C 92 % 1002,9 hPa 0,0 l/m² 0 min 0 min 0 W/m² 16,1 km/h (3 Bft) 95,35 %
03.01.2026 05:56 0,3 °C 0,0 °C -3,3 °C 92 % 1002,8 hPa 0,0 l/m² 0 min 0 min 0 W/m² 12,9 km/h (3 Bft) 96,08 %
03.01.2026 05:58 0,3 °C 0,0 °C -3,3 °C 92 % 1002,8 hPa 0,0 l/m² 0 min 0 min 0 W/m² 9,7 km/h (2 Bft) 91,30 %
03.01.2026 06:00 0,3 °C 0,0 °C -3,3 °C 92 % 1002,8 hPa 0,0 l/m² 0 min 0 min 0 W/m² 6,4 km/h (2 Bft) 89,47 %
03.01.2026 06:02 0,3 °C 0,0 °C -3,3 °C 92 % 1002,7 hPa 0,0 l/m² 0 min 0 min 0 W/m² 16,1 km/h (3 Bft) 93,22 %
03.01.2026 06:06 0,3 °C 0,0 °C -3,3 °C 92 % 1002,6 hPa 0,0 l/m² 0 min 0 min 0 W/m² 16,1 km/h (3 Bft) 93,90 %
03.01.2026 06:08 0,3 °C 0,0 °C -3,3 °C 92 % 1002,7 hPa 0,0 l/m² 0 min 0 min 0 W/m² 16,1 km/h (3 Bft) 91,49 %
03.01.2026 06:12 0,4 °C 0,0 °C -3,3 °C 91 % 1002,6 hPa 0,0 l/m² 0 min 0 min 0 W/m² 12,9 km/h (3 Bft) 93,62 %
03.01.2026 06:16 0,4 °C 0,0 °C -3,3 °C 91 % 1002,6 hPa 0,0 l/m² 0 min 0 min 0 W/m² 19,3 km/h (3 Bft) 95,74 %
03.01.2026 06:18 0,4 °C 0,0 °C -3,3 °C 91 % 1002,7 hPa 0,0 l/m² 0 min 0 min 0 W/m² 35,4 km/h (5 Bft) 93,48 %
03.01.2026 06:20 0,4 °C 0,0 °C -3,3 °C 91 % 1002,6 hPa 0,0 l/m² 0 min 0 min 0 W/m² 19,3 km/h (3 Bft) 95,74 %
03.01.2026 06:22 0,4 °C 0,0 °C -3,3 °C 91 % 1002,5 hPa 0,0 l/m² 0 min 0 min 0 W/m² 29,0 km/h (5 Bft) 94,64 %
03.01.2026 06:24 0,4 °C 0,0 °C -3,3 °C 91 % 1002,6 hPa 0,0 l/m² 0 min 0 min 0 W/m² 22,5 km/h (4 Bft) 94,74 %
03.01.2026 06:26 0,4 °C 0,0 °C -3,3 °C 91 % 1002,5 hPa 0,0 l/m² 0 min 0 min 0 W/m² 12,9 km/h (3 Bft) 59,57 %
03.01.2026 06:28 0,4 °C 0,0 °C -3,3 °C 91 % 1002,5 hPa 0,0 l/m² 0 min 0 min 0 W/m² 25,7 km/h (4 Bft) 92,59 %
03.01.2026 06:30 0,4 °C 0,0 °C -3,3 °C 91 % 1002,5 hPa 0,0 l/m² 0 min 0 min 0 W/m² 25,7 km/h (4 Bft) 94,87 %
03.01.2026 06:32 0,4 °C 0,0 °C -3,3 °C 91 % 1002,6 hPa 0,0 l/m² 0 min 0 min 0 W/m² 16,1 km/h (3 Bft) 98,15 %
03.01.2026 06:34 0,4 °C 0,0 °C -3,3 °C 91 % 1002,5 hPa 0,0 l/m² 0 min 0 min 0 W/m² 19,3 km/h (3 Bft) 97,50 %
03.01.2026 06:36 0,4 °C 0,0 °C -3,3 °C 90 % 1002,5 hPa 0,0 l/m² 0 min 0 min 0 W/m² 22,5 km/h (4 Bft) 98,21 %
03.01.2026 06:38 0,4 °C -0,6 °C -3,3 °C 90 % 1002,5 hPa 0,0 l/m² 0 min 0 min 0 W/m² 6,4 km/h (2 Bft) 97,73 %
03.01.2026 06:40 0,4 °C -0,6 °C -3,3 °C 90 % 1002,6 hPa 0,0 l/m² 0 min 0 min 0 W/m² 12,9 km/h (3 Bft) 97,56 %
03.01.2026 06:42 0,4 °C 0,0 °C -3,3 °C 90 % 1002,5 hPa 0,0 l/m² 0 min 0 min 0 W/m² 12,9 km/h (3 Bft) 100,00 %
03.01.2026 06:44 0,4 °C 0,0 °C -3,3 °C 90 % 1002,5 hPa 0,0 l/m² 0 min 0 min 0 W/m² 19,3 km/h (3 Bft) 100,00 %
03.01.2026 06:46 0,4 °C 0,0 °C -3,3 °C 90 % 1002,5 hPa 0,0 l/m² 0 min 0 min 0 W/m² 22,5 km/h (4 Bft) 100,00 %
03.01.2026 06:48 0,4 °C 0,0 °C -3,3 °C 90 % 1002,6 hPa 0,0 l/m² 0 min 0 min 0 W/m² 16,1 km/h (3 Bft) 100,00 %
03.01.2026 06:50 0,4 °C 0,0 °C -3,3 °C 90 % 1002,5 hPa 0,0 l/m² 0 min 0 min 0 W/m² 19,3 km/h (3 Bft) 100,00 %
03.01.2026 06:52 0,4 °C 0,0 °C -3,3 °C 91 % 1002,5 hPa 0,0 l/m² 0 min 0 min 0 W/m² 9,7 km/h (2 Bft) 100,00 %
03.01.2026 06:54 0,4 °C 0,0 °C -3,3 °C 90 % 1002,5 hPa 0,0 l/m² 0 min 0 min 0 W/m² 12,9 km/h (3 Bft) 100,00 %
03.01.2026 06:56 0,4 °C 0,0 °C -3,3 °C 90 % 1002,6 hPa 0,0 l/m² 0 min 0 min 0 W/m² 29,0 km/h (5 Bft) 100,00 %
03.01.2026 06:58 0,4 °C 0,0 °C -3,3 °C 90 % 1002,5 hPa 0,0 l/m² 0 min 0 min 0 W/m² 12,9 km/h (3 Bft) 100,00 %
03.01.2026 07:00 0,4 °C 0,0 °C -3,3 °C 90 % 1002,4 hPa 0,0 l/m² 0 min 0 min 0 W/m² 22,5 km/h (4 Bft) 100,00 %
03.01.2026 07:02 0,4 °C 0,0 °C -3,3 °C 90 % 1002,4 hPa 0,0 l/m² 0 min 0 min 0 W/m² 16,1 km/h (3 Bft) 100,00 %
03.01.2026 07:04 0,4 °C 0,0 °C -3,3 °C 90 % 1002,4 hPa 0,0 l/m² 0 min 0 min 0 W/m² 16,1 km/h (3 Bft) 100,00 %
03.01.2026 07:08 0,4 °C 0,0 °C -3,3 °C 90 % 1002,3 hPa 0,0 l/m² 0 min 0 min 0 W/m² 32,2 km/h (5 Bft) 100,00 %
03.01.2026 07:09 0,4 °C 0,0 °C -3,3 °C 90 % 1002,4 hPa 0,0 l/m² 0 min 0 min 0 W/m² 9,7 km/h (2 Bft) 96,87 %
03.01.2026 07:10 0,4 °C 0,0 °C -3,3 °C 90 % 1002,4 hPa 0,0 l/m² 0 min 0 min 0 W/m² 32,2 km/h (5 Bft) 81,58 %
03.01.2026 07:14 0,4 °C 0,0 °C -3,3 °C 90 % 1002,4 hPa 0,0 l/m² 0 min 0 min 0 W/m² 3,2 km/h (1 Bft) 100,00 %
03.01.2026 07:16 0,4 °C 0,0 °C -3,3 °C 90 % 1002,3 hPa 0,0 l/m² 0 min 0 min 0 W/m² 22,5 km/h (4 Bft) 100,00 %
03.01.2026 07:20 0,4 °C 0,0 °C -3,3 °C 90 % 1002,4 hPa 0,0 l/m² 0 min 0 min 0 W/m² 22,5 km/h (4 Bft) 98,94 %
03.01.2026 07:22 0,4 °C 0,0 °C -3,3 °C 90 % 1002,3 hPa 0,0 l/m² 0 min 0 min 0 W/m² 12,9 km/h (3 Bft) 100,00 %
03.01.2026 07:26 0,4 °C 0,0 °C -3,3 °C 90 % 1002,4 hPa 0,0 l/m² 0 min 0 min 0 W/m² 16,1 km/h (3 Bft) 100,00 %
03.01.2026 07:28 0,4 °C 0,0 °C -3,3 °C 90 % 1002,4 hPa 0,0 l/m² 0 min 0 min 0 W/m² 16,1 km/h (3 Bft) 100,00 %
03.01.2026 07:30 0,4 °C 0,0 °C -3,3 °C 90 % 1002,4 hPa 0,0 l/m² 0 min 0 min 0 W/m² 9,7 km/h (2 Bft) 100,00 %
03.01.2026 07:34 0,4 °C 0,0 °C -3,3 °C 89 % 1002,5 hPa 0,0 l/m² 0 min 0 min 0 W/m² 22,5 km/h (4 Bft) 96,63 %
03.01.2026 07:36 0,4 °C 0,0 °C -3,3 °C 89 % 1002,4 hPa 0,0 l/m² 0 min 0 min 0 W/m² 3,2 km/h (1 Bft) 96,80 %
03.01.2026 07:40 0,4 °C 0,0 °C -3,3 °C 89 % 1002,4 hPa 0,0 l/m² 0 min 0 min 0 W/m² 16,1 km/h (3 Bft) 97,67 %
03.01.2026 07:43 0,4 °C 0,0 °C -3,3 °C 89 % 1002,4 hPa 0,0 l/m² 0 min 0 min 0 W/m² 12,9 km/h (3 Bft) 98,73 %
03.01.2026 07:44 0,4 °C 0,0 °C -3,3 °C 89 % 1002,4 hPa 0,0 l/m² 0 min 0 min 0 W/m² 6,4 km/h (2 Bft) 96,82 %
03.01.2026 07:45 0,4 °C 0,0 °C -3,3 °C 89 % 1002,4 hPa 0,0 l/m² 0 min 0 min 0 W/m² 16,1 km/h (3 Bft) 100,00 %
03.01.2026 07:50 0,5 °C 0,0 °C -3,3 °C 89 % 1002,5 hPa 0,0 l/m² 0 min 0 min 0 W/m² 16,1 km/h (3 Bft) 97,18 %
03.01.2026 07:52 0,4 °C 0,0 °C -3,3 °C 89 % 1002,4 hPa 0,0 l/m² 0 min 0 min 0 W/m² 12,9 km/h (3 Bft) 98,11 %
03.01.2026 07:54 0,5 °C 0,0 °C -3,3 °C 89 % 1002,5 hPa 0,0 l/m² 0 min 0 min 0 W/m² 16,1 km/h (3 Bft) 98,08 %
03.01.2026 07:58 0,5 °C 0,0 °C -3,3 °C 89 % 1002,4 hPa 0,0 l/m² 0 min 0 min 0 W/m² 16,1 km/h (3 Bft) 96,51 %
03.01.2026 08:02 0,4 °C 0,0 °C -3,3 °C 89 % 1002,4 hPa 0,0 l/m² 0 min 0 min 0 W/m² 25,7 km/h (4 Bft) 97,96 %
03.01.2026 08:06 0,4 °C 0,0 °C -3,3 °C 88 % 1002,3 hPa 0,0 l/m² 0 min 0 min 0 W/m² 19,3 km/h (3 Bft) 95,88 %
03.01.2026 08:10 0,4 °C 0,0 °C -3,3 °C 88 % 1002,2 hPa 0,0 l/m² 0 min 0 min 0 W/m² 19,3 km/h (3 Bft) 97,75 %
03.01.2026 08:12 0,4 °C 0,0 °C -3,3 °C 88 % 1002,3 hPa 0,0 l/m² 0 min 0 min 0 W/m² 12,9 km/h (3 Bft) 100,00 %
03.01.2026 08:14 0,4 °C 0,0 °C -3,3 °C 88 % 1002,2 hPa 0,0 l/m² 0 min 0 min 0 W/m² 16,1 km/h (3 Bft) 100,00 %
03.01.2026 08:18 0,4 °C 0,0 °C -3,3 °C 88 % 1002,2 hPa 0,0 l/m² 0 min 0 min 0 W/m² 19,3 km/h (3 Bft) 96,55 %
03.01.2026 08:20 0,4 °C 0,0 °C -3,3 °C 88 % 1002,2 hPa 0,0 l/m² 0 min 0 min 0 W/m² 29,0 km/h (5 Bft) 94,92 %
03.01.2026 08:26 0,4 °C 0,0 °C -3,3 °C 88 % 1002,2 hPa 0,0 l/m² 0 min 0 min 0 W/m² 16,1 km/h (3 Bft) 93,75 %
03.01.2026 08:30 0,4 °C 0,0 °C -3,3 °C 88 % 1002,2 hPa 0,0 l/m² 0 min 0 min 0 W/m² 22,5 km/h (4 Bft) 95,70 %
03.01.2026 08:34 0,4 °C 0,0 °C -3,3 °C 88 % 1002,1 hPa 0,0 l/m² 0 min 0 min 0 W/m² 29,0 km/h (5 Bft) 94,74 %
03.01.2026 08:38 0,4 °C 0,0 °C -3,3 °C 88 % 1002,2 hPa 0,0 l/m² 0 min 0 min 0 W/m² 9,7 km/h (2 Bft) 92,00 %
03.01.2026 08:42 0,4 °C 0,0 °C -3,3 °C 88 % 1002,2 hPa 0,0 l/m² 0 min 0 min 0 W/m² 22,5 km/h (4 Bft) 74,68 %
03.01.2026 08:45 0,4 °C 0,0 °C -3,3 °C 88 % 1002,3 hPa 0,0 l/m² 0 min 0 min 0 W/m² 22,5 km/h (4 Bft) 94,92 %
03.01.2026 08:50 0,4 °C 0,0 °C -3,3 °C 88 % 1002,2 hPa 0,0 l/m² 0 min 0 min 2 W/m² 32,2 km/h (5 Bft) 95,61 %
03.01.2026 08:55 0,4 °C 0,0 °C -3,3 °C 88 % 1002,3 hPa 0,0 l/m² 0 min 0 min 6 W/m² 35,4 km/h (5 Bft) 96,49 %
03.01.2026 09:00 0,4 °C 0,0 °C -3,3 °C 88 % 1002,2 hPa 0,0 l/m² 0 min 0 min 7 W/m² 19,3 km/h (3 Bft) 100,00 %
03.01.2026 09:05 0,4 °C 0,0 °C -3,3 °C 88 % 1002,2 hPa 0,0 l/m² 0 min 0 min 10 W/m² 19,3 km/h (3 Bft) 100,00 %
03.01.2026 09:10 0,4 °C 0,0 °C -3,3 °C 88 % 1002,3 hPa 0,0 l/m² 0 min 0 min 10 W/m² 22,5 km/h (4 Bft) 98,25 %
03.01.2026 09:15 0,3 °C -0,6 °C -3,3 °C 88 % 1002,3 hPa 0,0 l/m² 0 min 0 min 13 W/m² 19,3 km/h (3 Bft) 99,12 %
03.01.2026 09:20 0,3 °C 0,0 °C -3,3 °C 88 % 1002,3 hPa 0,0 l/m² 0 min 0 min 23 W/m² 29,0 km/h (5 Bft) 99,12 %
03.01.2026 09:25 0,3 °C 0,0 °C -3,3 °C 88 % 1002,3 hPa 0,0 l/m² 0 min 0 min 34 W/m² 19,3 km/h (3 Bft) 98,25 %
03.01.2026 09:30 0,3 °C 0,0 °C -3,3 °C 88 % 1002,3 hPa 0,0 l/m² 0 min 0 min 38 W/m² 25,7 km/h (4 Bft) 98,25 %
03.01.2026 09:35 0,4 °C 0,0 °C -3,3 °C 88 % 1002,2 hPa 0,0 l/m² 0 min 0 min 35 W/m² 25,7 km/h (4 Bft) 98,25 %
03.01.2026 09:40 0,4 °C 0,0 °C -3,3 °C 88 % 1002,2 hPa 0,0 l/m² 0 min 0 min 61 W/m² 19,3 km/h (3 Bft) 99,12 %
03.01.2026 09:45 0,4 °C 0,6 °C -2,8 °C 88 % 1002,3 hPa 0,0 l/m² 5 min 0 min 68 W/m² 25,7 km/h (4 Bft) 100,00 %
03.01.2026 09:50 0,5 °C 0,0 °C -2,8 °C 88 % 1002,3 hPa 0,0 l/m² 0 min 0 min 42 W/m² 19,3 km/h (3 Bft) 96,49 %
03.01.2026 09:55 0,6 °C 0,0 °C -2,8 °C 88 % 1002,4 hPa 0,0 l/m² 0 min 0 min 44 W/m² 19,3 km/h (3 Bft) 100,00 %
03.01.2026 10:00 0,6 °C 0,6 °C -2,8 °C 88 % 1002,4 hPa 0,0 l/m² 0 min 0 min 41 W/m² 16,1 km/h (3 Bft) 100,00 %
03.01.2026 10:05 0,6 °C 0,6 °C -2,8 °C 88 % 1002,3 hPa 0,0 l/m² 0 min 0 min 52 W/m² 25,7 km/h (4 Bft) 100,00 %
03.01.2026 10:10 0,6 °C 0,6 °C -2,8 °C 89 % 1002,4 hPa 0,0 l/m² 0 min 0 min 73 W/m² 35,4 km/h (5 Bft) 100,00 %
03.01.2026 10:15 0,6 °C 0,6 °C -2,8 °C 89 % 1002,5 hPa 0,0 l/m² 0 min 0 min 66 W/m² 19,3 km/h (3 Bft) 100,00 %
03.01.2026 10:20 0,7 °C 0,6 °C -2,8 °C 89 % 1002,3 hPa 0,0 l/m² 0 min 0 min 41 W/m² 25,7 km/h (4 Bft) 100,00 %
03.01.2026 10:25 0,7 °C 0,6 °C -2,8 °C 89 % 1002,4 hPa 0,0 l/m² 0 min 0 min 36 W/m² 32,2 km/h (5 Bft) 100,00 %
03.01.2026 10:30 0,7 °C 0,6 °C -2,8 °C 89 % 1002,5 hPa 0,0 l/m² 0 min 0 min 37 W/m² 25,7 km/h (4 Bft) 100,00 %
03.01.2026 10:35 0,7 °C 0,6 °C -2,8 °C 89 % 1002,5 hPa 0,0 l/m² 0 min 0 min 49 W/m² 22,5 km/h (4 Bft) 100,00 %
03.01.2026 10:40 0,6 °C 0,6 °C -2,8 °C 89 % 1002,4 hPa 0,0 l/m² 0 min 0 min 80 W/m² 32,2 km/h (5 Bft) 100,00 %
03.01.2026 10:45 0,6 °C 0,6 °C -2,8 °C 89 % 1002,6 hPa 0,0 l/m² 0 min 0 min 84 W/m² 22,5 km/h (4 Bft) 99,12 %
03.01.2026 10:50 0,6 °C 0,6 °C -2,8 °C 89 % 1002,6 hPa 0,0 l/m² 0 min 0 min 44 W/m² 22,5 km/h (4 Bft) 100,00 %
03.01.2026 10:55 0,6 °C 0,6 °C -2,8 °C 89 % 1002,5 hPa 0,0 l/m² 0 min 0 min 39 W/m² 19,3 km/h (3 Bft) 100,00 %
03.01.2026 11:00 0,6 °C 0,6 °C -2,8 °C 90 % 1002,6 hPa 0,0 l/m² 0 min 0 min 97 W/m² 19,3 km/h (3 Bft) 99,12 %
03.01.2026 11:05 0,7 °C 0,0 °C -3,3 °C 90 % 1002,6 hPa 0,0 l/m² 0 min 0 min 36 W/m² 12,9 km/h (3 Bft) 100,00 %
03.01.2026 11:10 0,6 °C 0,0 °C -3,3 °C 90 % 1002,6 hPa 0,0 l/m² 0 min 0 min 37 W/m² 25,7 km/h (4 Bft) 96,49 %
03.01.2026 11:15 0,6 °C 0,0 °C -3,3 °C 91 % 1002,6 hPa 0,0 l/m² 0 min 0 min 55 W/m² 25,7 km/h (4 Bft) 99,12 %
03.01.2026 11:20 0,6 °C 0,6 °C -3,3 °C 91 % 1002,5 hPa 0,0 l/m² 0 min 0 min 95 W/m² 22,5 km/h (4 Bft) 100,00 %
03.01.2026 11:25 0,6 °C 1,1 °C -2,8 °C 92 % 1002,5 hPa 0,0 l/m² 5 min 0 min 157 W/m² 16,1 km/h (3 Bft) 96,49 %
03.01.2026 11:30 0,6 °C 1,1 °C -2,8 °C 92 % 1002,4 hPa 0,2 l/m² 5 min 0 min 183 W/m² 22,5 km/h (4 Bft) 96,49 %
03.01.2026 11:35 0,6 °C 1,1 °C -2,8 °C 92 % 1002,4 hPa 0,0 l/m² 0 min 0 min 100 W/m² 25,7 km/h (4 Bft) 98,25 %
03.01.2026 11:40 0,6 °C 1,1 °C -2,8 °C 92 % 1002,3 hPa 0,0 l/m² 5 min 0 min 162 W/m² 25,7 km/h (4 Bft) 98,25 %
03.01.2026 11:45 0,7 °C 1,7 °C -2,8 °C 92 % 1002,4 hPa 0,0 l/m² 5 min 0 min 207 W/m² 19,3 km/h (3 Bft) 95,61 %
03.01.2026 11:50 0,9 °C 2,2 °C -2,2 °C 92 % 1002,4 hPa 0,2 l/m² 5 min 0 min 280 W/m² 22,5 km/h (4 Bft) 96,49 %
03.01.2026 11:55 1,0 °C 1,7 °C -2,2 °C 92 % 1002,3 hPa 0,0 l/m² 5 min 0 min 161 W/m² 19,3 km/h (3 Bft) 95,61 %
03.01.2026 12:00 1,0 °C 1,1 °C -2,2 °C 92 % 1002,3 hPa 0,0 l/m² 0 min 0 min 103 W/m² 19,3 km/h (3 Bft) 99,12 %
03.01.2026 12:05 0,9 °C 1,1 °C -2,8 °C 91 % 1002,3 hPa 0,0 l/m² 0 min 0 min 73 W/m² 16,1 km/h (3 Bft) 99,12 %
03.01.2026 12:10 0,9 °C 0,6 °C -2,8 °C 91 % 1002,4 hPa 0,0 l/m² 0 min 0 min 57 W/m² 19,3 km/h (3 Bft) 100,00 %
03.01.2026 12:15 0,9 °C 0,6 °C -2,8 °C 91 % 1002,4 hPa 0,0 l/m² 0 min 0 min 62 W/m² 19,3 km/h (3 Bft) 100,00 %
03.01.2026 12:20 0,8 °C 0,6 °C -2,8 °C 91 % 1002,4 hPa 0,2 l/m² 0 min 0 min 63 W/m² 22,5 km/h (4 Bft) 99,12 %
03.01.2026 12:25 0,8 °C 0,6 °C -2,8 °C 91 % 1002,4 hPa 0,0 l/m² 0 min 0 min 58 W/m² 22,5 km/h (4 Bft) 100,00 %
03.01.2026 12:30 0,8 °C 0,6 °C -2,8 °C 92 % 1002,3 hPa 0,0 l/m² 0 min 0 min 53 W/m² 16,1 km/h (3 Bft) 100,00 %
03.01.2026 12:35 0,8 °C 1,1 °C -2,2 °C 92 % 1002,3 hPa 0,0 l/m² 0 min 0 min 116 W/m² 19,3 km/h (3 Bft) 100,00 %
03.01.2026 12:40 0,9 °C 1,1 °C -2,2 °C 92 % 1002,4 hPa 0,0 l/m² 0 min 0 min 136 W/m² 19,3 km/h (3 Bft) 100,00 %
03.01.2026 12:45 1,0 °C 1,7 °C -2,2 °C 92 % 1002,3 hPa 0,0 l/m² 5 min 0 min 173 W/m² 12,9 km/h (3 Bft) 100,00 %
03.01.2026 12:50 1,1 °C 1,1 °C -2,2 °C 92 % 1002,3 hPa 0,0 l/m² 0 min 0 min 104 W/m² 16,1 km/h (3 Bft) 100,00 %
03.01.2026 12:55 1,1 °C 1,1 °C -2,2 °C 92 % 1002,2 hPa 0,0 l/m² 0 min 0 min 112 W/m² 29,0 km/h (5 Bft) 100,00 %
03.01.2026 13:00 1,1 °C 1,1 °C -2,2 °C 91 % 1002,1 hPa 0,0 l/m² 0 min 0 min 120 W/m² 22,5 km/h (4 Bft) 100,00 %
03.01.2026 13:05 1,2 °C 1,1 °C -2,2 °C 91 % 1002,1 hPa 0,2 l/m² 0 min 0 min 99 W/m² 32,2 km/h (5 Bft) 100,00 %
03.01.2026 13:10 1,2 °C 1,1 °C -2,2 °C 91 % 1002,1 hPa 0,0 l/m² 0 min 0 min 80 W/m² 22,5 km/h (4 Bft) 100,00 %
03.01.2026 13:15 1,2 °C 1,1 °C -2,2 °C 91 % 1002,1 hPa 0,0 l/m² 0 min 0 min 123 W/m² 25,7 km/h (4 Bft) 100,00 %
03.01.2026 13:20 1,2 °C 1,1 °C -2,2 °C 91 % 1002,1 hPa 0,0 l/m² 0 min 0 min 131 W/m² 22,5 km/h (4 Bft) 100,00 %
03.01.2026 13:26 1,2 °C 1,7 °C -2,2 °C 91 % 1002,1 hPa 0,0 l/m² 5 min 0 min 215 W/m² 9,7 km/h (2 Bft) 96,81 %
03.01.2026 13:28 1,2 °C 1,7 °C -2,2 °C 91 % 1002,1 hPa 0,0 l/m² 2 min 0 min 206 W/m² 16,1 km/h (3 Bft) 95,83 %
03.01.2026 13:30 1,3 °C 1,7 °C -2,2 °C 91 % 1002,1 hPa 0,0 l/m² 2 min 0 min 213 W/m² 16,1 km/h (3 Bft) 97,37 %
03.01.2026 13:36 1,3 °C 1,7 °C -2,2 °C 92 % 1002,1 hPa 0,0 l/m² 0 min 0 min 126 W/m² 22,5 km/h (4 Bft) 97,44 %
03.01.2026 13:40 1,2 °C 1,1 °C -2,2 °C 92 % 1002,1 hPa 0,0 l/m² 0 min 0 min 54 W/m² 19,3 km/h (3 Bft) 94,74 %
03.01.2026 13:42 1,1 °C 0,6 °C -2,8 °C 92 % 1002,1 hPa 0,0 l/m² 0 min 0 min 34 W/m² 16,1 km/h (3 Bft) 97,62 %
03.01.2026 13:44 1,1 °C 0,6 °C -2,8 °C 92 % 1002,1 hPa 0,0 l/m² 0 min 0 min 26 W/m² 6,4 km/h (2 Bft) 96,15 %
03.01.2026 13:48 1,0 °C 0,0 °C -3,3 °C 92 % 1002,3 hPa 0,0 l/m² 0 min 0 min 17 W/m² 19,3 km/h (3 Bft) 94,62 %
03.01.2026 13:52 0,9 °C 0,0 °C -3,3 °C 92 % 1002,3 hPa 0,0 l/m² 0 min 0 min 22 W/m² 16,1 km/h (3 Bft) 96,70 %
03.01.2026 13:54 0,8 °C 0,0 °C -3,3 °C 92 % 1002,3 hPa 0,0 l/m² 0 min 0 min 33 W/m² 35,4 km/h (5 Bft) 95,92 %
03.01.2026 13:56 0,8 °C 0,0 °C -3,9 °C 92 % 1002,3 hPa 0,0 l/m² 0 min 0 min 26 W/m² 6,4 km/h (2 Bft) 93,75 %
03.01.2026 14:00 0,6 °C 0,0 °C -3,9 °C 93 % 1002,3 hPa 0,0 l/m² 0 min 0 min 23 W/m² 22,5 km/h (4 Bft) 95,45 %
03.01.2026 14:04 0,6 °C 0,0 °C -3,9 °C 93 % 1002,3 hPa 0,0 l/m² 0 min 0 min 30 W/m² 25,7 km/h (4 Bft) 96,67 %
03.01.2026 14:06 0,6 °C 0,0 °C -3,9 °C 93 % 1002,3 hPa 0,0 l/m² 0 min 0 min 26 W/m² 3,2 km/h (1 Bft) 94,64 %
03.01.2026 14:07 0,6 °C 0,0 °C -3,9 °C 93 % 1002,3 hPa 0,0 l/m² 0 min 0 min 25 W/m² 3,2 km/h (1 Bft) 96,58 %
03.01.2026 14:12 0,6 °C 0,0 °C -3,9 °C 94 % 1002,3 hPa 0,0 l/m² 0 min 0 min 23 W/m² 6,4 km/h (2 Bft) 81,03 %
03.01.2026 14:14 0,6 °C -0,6 °C -3,9 °C 94 % 1002,2 hPa 0,0 l/m² 0 min 0 min 23 W/m² 19,3 km/h (3 Bft) 94,29 %
03.01.2026 14:18 0,5 °C -0,6 °C -3,9 °C 94 % 1002,1 hPa 0,0 l/m² 0 min 0 min 19 W/m² 12,9 km/h (3 Bft) 95,28 %
03.01.2026 14:22 0,4 °C 0,0 °C -3,9 °C 94 % 1002,1 hPa 0,0 l/m² 0 min 0 min 23 W/m² 12,9 km/h (3 Bft) 95,18 %
03.01.2026 14:25 0,4 °C 0,0 °C -3,9 °C 94 % 1002,0 hPa 0,0 l/m² 0 min 0 min 31 W/m² 12,9 km/h (3 Bft) 96,30 %
03.01.2026 14:30 0,4 °C 0,0 °C -3,9 °C 94 % 1002,2 hPa 0,0 l/m² 0 min 0 min 39 W/m² 6,4 km/h (2 Bft) 96,51 %
03.01.2026 14:34 0,4 °C 0,0 °C -3,3 °C 95 % 1002,2 hPa 0,0 l/m² 0 min 0 min 61 W/m² 16,1 km/h (3 Bft) 96,12 %
03.01.2026 14:36 0,4 °C 0,0 °C -3,3 °C 95 % 1002,2 hPa 0,0 l/m² 0 min 0 min 77 W/m² 19,3 km/h (3 Bft) 94,44 %
03.01.2026 14:40 0,5 °C 0,0 °C -3,3 °C 95 % 1002,4 hPa 0,0 l/m² 0 min 0 min 76 W/m² 19,3 km/h (3 Bft) 95,74 %
03.01.2026 14:44 0,5 °C 0,0 °C -3,3 °C 95 % 1002,4 hPa 0,0 l/m² 0 min 0 min 43 W/m² 16,1 km/h (3 Bft) 96,81 %
03.01.2026 14:46 0,5 °C 0,0 °C -3,3 °C 95 % 1002,4 hPa 0,0 l/m² 0 min 0 min 22 W/m² 12,9 km/h (3 Bft) 93,48 %
03.01.2026 14:50 0,4 °C 0,0 °C -3,9 °C 95 % 1002,5 hPa 0,0 l/m² 0 min 0 min 24 W/m² 12,9 km/h (3 Bft) 96,81 %
03.01.2026 14:54 0,4 °C 0,0 °C -3,9 °C 95 % 1002,5 hPa 0,0 l/m² 0 min 0 min 38 W/m² 12,9 km/h (3 Bft) 96,81 %
03.01.2026 14:58 0,4 °C 0,0 °C -3,3 °C 95 % 1002,6 hPa 0,0 l/m² 0 min 0 min 35 W/m² 16,1 km/h (3 Bft) 97,12 %
03.01.2026 15:02 0,4 °C 0,0 °C -3,3 °C 95 % 1002,6 hPa 0,2 l/m² 0 min 4 min 32 W/m² 16,1 km/h (3 Bft) 71,26 %
03.01.2026 15:04 0,4 °C 0,0 °C -3,3 °C 95 % 1002,6 hPa 0,0 l/m² 0 min 0 min 32 W/m² 16,1 km/h (3 Bft) 92,50 %
03.01.2026 15:08 0,4 °C 0,0 °C -3,9 °C 95 % 1002,7 hPa 0,0 l/m² 0 min 0 min 24 W/m² 12,9 km/h (3 Bft) 97,73 %
03.01.2026 15:10 0,4 °C 0,0 °C -3,9 °C 95 % 1002,7 hPa 0,0 l/m² 0 min 0 min 24 W/m² 12,9 km/h (3 Bft) 100,00 %
03.01.2026 15:14 0,4 °C 0,0 °C -3,9 °C 95 % 1002,8 hPa 0,0 l/m² 0 min 0 min 18 W/m² 16,1 km/h (3 Bft) 96,38 %
03.01.2026 15:18 0,3 °C -0,6 °C -3,9 °C 95 % 1002,9 hPa 0,0 l/m² 0 min 0 min 12 W/m² 12,9 km/h (3 Bft) 97,86 %
03.01.2026 15:22 0,3 °C -0,6 °C -3,9 °C 96 % 1003,0 hPa 0,0 l/m² 0 min 0 min 14 W/m² 16,1 km/h (3 Bft) 95,79 %
03.01.2026 15:24 0,3 °C -0,6 °C -3,9 °C 96 % 1003,0 hPa 0,0 l/m² 0 min 0 min 14 W/m² 16,1 km/h (3 Bft) 98,00 %
03.01.2026 15:26 0,3 °C -0,6 °C -3,9 °C 96 % 1003,0 hPa 0,0 l/m² 0 min 0 min 12 W/m² 6,4 km/h (2 Bft) 95,35 %
03.01.2026 15:30 0,3 °C -0,6 °C -3,9 °C 96 % 1003,0 hPa 0,0 l/m² 0 min 0 min 9 W/m² 6,4 km/h (2 Bft) 95,88 %
03.01.2026 15:32 0,3 °C -0,6 °C -3,9 °C 96 % 1003,0 hPa 0,0 l/m² 0 min 0 min 9 W/m² 9,7 km/h (2 Bft) 91,49 %
03.01.2026 15:33 0,3 °C -0,6 °C -3,9 °C 96 % 1003,0 hPa 0,0 l/m² 0 min 0 min 10 W/m² 3,2 km/h (1 Bft) 96,37 %
03.01.2026 15:35 0,3 °C -0,6 °C -3,9 °C 96 % 1003,0 hPa 0,0 l/m² 0 min 0 min 10 W/m² 12,9 km/h (3 Bft) 98,25 %
03.01.2026 15:38 0,3 °C -0,6 °C -3,9 °C 96 % 1003,0 hPa 0,0 l/m² 0 min 0 min 12 W/m² 12,9 km/h (3 Bft) 97,87 %
03.01.2026 15:42 0,3 °C -0,6 °C -3,9 °C 96 % 1003,1 hPa 0,0 l/m² 0 min 0 min 12 W/m² 19,3 km/h (3 Bft) 96,74 %
03.01.2026 15:44 0,3 °C -0,6 °C -3,9 °C 96 % 1003,1 hPa 0,0 l/m² 0 min 0 min 8 W/m² 16,1 km/h (3 Bft) 97,92 %
03.01.2026 15:48 0,3 °C -0,6 °C -3,9 °C 96 % 1003,3 hPa 0,0 l/m² 0 min 0 min 10 W/m² 22,5 km/h (4 Bft) 96,67 %
03.01.2026 15:52 0,3 °C -0,6 °C -3,9 °C 96 % 1003,2 hPa 0,0 l/m² 0 min 0 min 10 W/m² 12,9 km/h (3 Bft) 97,67 %
03.01.2026 15:54 0,3 °C -0,6 °C -3,9 °C 96 % 1003,3 hPa 0,0 l/m² 0 min 0 min 11 W/m² 16,1 km/h (3 Bft) 96,55 %
03.01.2026 15:56 0,3 °C -0,6 °C -3,9 °C 96 % 1003,2 hPa 0,0 l/m² 0 min 0 min 13 W/m² 3,2 km/h (1 Bft) 100,00 %
03.01.2026 15:58 0,3 °C -0,6 °C -3,9 °C 96 % 1003,1 hPa 0,2 l/m² 0 min 0 min 12 W/m² 16,1 km/h (3 Bft) 98,00 %
03.01.2026 16:00 0,3 °C 0,0 °C -3,9 °C 96 % 1003,2 hPa 0,0 l/m² 0 min 0 min 12 W/m² 9,7 km/h (2 Bft) 97,62 %
03.01.2026 16:02 0,3 °C 0,0 °C -3,3 °C 96 % 1003,3 hPa 0,0 l/m² 0 min 0 min 10 W/m² 22,5 km/h (4 Bft) 98,08 %
03.01.2026 16:04 0,3 °C 0,0 °C -3,3 °C 96 % 1003,3 hPa 0,0 l/m² 0 min 0 min 9 W/m² 12,9 km/h (3 Bft) 100,00 %
03.01.2026 16:08 0,3 °C 0,0 °C -3,3 °C 96 % 1003,3 hPa 0,0 l/m² 0 min 0 min 7 W/m² 12,9 km/h (3 Bft) 98,06 %
03.01.2026 16:10 0,3 °C 0,0 °C -3,3 °C 96 % 1003,4 hPa 0,0 l/m² 0 min 2 min 5 W/m² 12,9 km/h (3 Bft) 100,00 %
03.01.2026 16:12 0,3 °C 0,0 °C -3,3 °C 96 % 1003,4 hPa 0,0 l/m² 0 min 0 min 7 W/m² 16,1 km/h (3 Bft) 100,00 %
03.01.2026 16:14 0,3 °C 0,0 °C -3,3 °C 96 % 1003,4 hPa 0,0 l/m² 0 min 0 min 7 W/m² 12,9 km/h (3 Bft) 100,00 %
03.01.2026 16:16 0,3 °C 0,0 °C -3,3 °C 96 % 1003,3 hPa 0,0 l/m² 0 min 0 min 7 W/m² 9,7 km/h (2 Bft) 95,92 %
03.01.2026 16:20 0,3 °C -0,6 °C -3,3 °C 96 % 1003,3 hPa 0,0 l/m² 0 min 0 min 7 W/m² 16,1 km/h (3 Bft) 98,94 %
03.01.2026 16:24 0,3 °C -0,6 °C -3,3 °C 96 % 1003,1 hPa 0,0 l/m² 0 min 0 min 7 W/m² 12,9 km/h (3 Bft) 96,67 %
03.01.2026 16:26 0,2 °C -0,6 °C -3,3 °C 96 % 1003,2 hPa 0,0 l/m² 0 min 0 min 7 W/m² 22,5 km/h (4 Bft) 95,92 %
03.01.2026 16:30 0,2 °C -0,6 °C -3,9 °C 96 % 1003,2 hPa 0,0 l/m² 0 min 0 min 7 W/m² 19,3 km/h (3 Bft) 97,62 %
03.01.2026 16:34 0,1 °C -0,6 °C -3,9 °C 97 % 1003,3 hPa 0,0 l/m² 0 min 0 min 5 W/m² 16,1 km/h (3 Bft) 96,97 %
03.01.2026 16:38 0,1 °C -0,6 °C -3,9 °C 96 % 1003,5 hPa 0,0 l/m² 0 min 0 min 2 W/m² 16,1 km/h (3 Bft) 97,96 %
03.01.2026 16:42 0,1 °C -0,6 °C -3,9 °C 96 % 1003,8 hPa 0,0 l/m² 0 min 0 min 0 W/m² 16,1 km/h (3 Bft) 97,73 %
03.01.2026 16:44 0,1 °C -0,6 °C -3,9 °C 96 % 1003,8 hPa 0,0 l/m² 0 min 0 min 0 W/m² 12,9 km/h (3 Bft) 95,92 %
03.01.2026 16:48 0,1 °C -0,6 °C -3,9 °C 97 % 1004,0 hPa 0,0 l/m² 0 min 0 min 0 W/m² 12,9 km/h (3 Bft) 96,94 %
03.01.2026 16:49 0,2 °C -0,6 °C -3,9 °C 97 % 1003,9 hPa 0,0 l/m² 0 min 0 min 0 W/m² 16,1 km/h (3 Bft) 96,49 %
03.01.2026 16:50 0,2 °C -0,6 °C -3,9 °C 97 % 1003,9 hPa 0,0 l/m² 0 min 0 min 0 W/m² 22,5 km/h (4 Bft) 99,12 %
03.01.2026 16:54 0,2 °C -0,6 °C -3,3 °C 97 % 1004,1 hPa 0,0 l/m² 0 min 0 min 0 W/m² 12,9 km/h (3 Bft) 96,15 %
03.01.2026 16:58 0,2 °C -0,6 °C -3,3 °C 97 % 1004,1 hPa 0,0 l/m² 0 min 0 min 0 W/m² 25,7 km/h (4 Bft) 97,75 %
03.01.2026 17:00 0,2 °C -0,6 °C -3,3 °C 97 % 1004,1 hPa 0,0 l/m² 0 min 0 min 0 W/m² 16,1 km/h (3 Bft) 98,25 %
03.01.2026 17:04 0,2 °C -0,6 °C -3,3 °C 97 % 1004,2 hPa 0,0 l/m² 0 min 0 min 0 W/m² 29,0 km/h (5 Bft) 100,00 %
03.01.2026 17:06 0,2 °C -0,6 °C -3,3 °C 97 % 1004,2 hPa 0,0 l/m² 0 min 0 min 0 W/m² 12,9 km/h (3 Bft) 98,25 %
03.01.2026 17:08 0,2 °C -0,6 °C -3,3 °C 97 % 1004,3 hPa 0,0 l/m² 0 min 0 min 0 W/m² 9,7 km/h (2 Bft) 97,92 %
03.01.2026 17:12 0,2 °C -0,6 °C -3,3 °C 97 % 1004,4 hPa 0,0 l/m² 0 min 0 min 0 W/m² 12,9 km/h (3 Bft) 98,00 %
03.01.2026 17:14 0,2 °C -0,6 °C -3,3 °C 97 % 1004,5 hPa 0,0 l/m² 0 min 0 min 0 W/m² 12,9 km/h (3 Bft) 95,35 %
03.01.2026 17:16 0,2 °C -0,6 °C -3,3 °C 97 % 1004,5 hPa 0,0 l/m² 0 min 0 min 0 W/m² 12,9 km/h (3 Bft) 97,56 %
03.01.2026 17:18 0,2 °C -0,6 °C -3,3 °C 97 % 1004,5 hPa 0,0 l/m² 0 min 0 min 0 W/m² 9,7 km/h (2 Bft) 95,74 %
03.01.2026 17:20 0,2 °C -0,6 °C -3,3 °C 97 % 1004,7 hPa 0,0 l/m² 0 min 0 min 0 W/m² 6,4 km/h (2 Bft) 97,83 %
03.01.2026 17:22 0,2 °C -0,6 °C -3,3 °C 97 % 1004,7 hPa 0,0 l/m² 0 min 0 min 0 W/m² 12,9 km/h (3 Bft) 94,55 %
03.01.2026 17:24 0,2 °C -0,6 °C -3,3 °C 97 % 1004,8 hPa 0,0 l/m² 0 min 0 min 0 W/m² 16,1 km/h (3 Bft) 97,96 %
03.01.2026 17:26 0,2 °C -0,6 °C -3,3 °C 97 % 1004,8 hPa 0,0 l/m² 0 min 0 min 0 W/m² 9,7 km/h (2 Bft) 97,37 %
03.01.2026 17:28 0,2 °C -0,6 °C -3,3 °C 97 % 1004,7 hPa 0,0 l/m² 0 min 0 min 0 W/m² 12,9 km/h (3 Bft) 98,15 %
03.01.2026 17:30 0,2 °C -0,6 °C -3,3 °C 97 % 1004,8 hPa 0,0 l/m² 0 min 0 min 0 W/m² 16,1 km/h (3 Bft) 94,87 %
03.01.2026 17:32 0,3 °C -0,6 °C -3,3 °C 97 % 1004,8 hPa 0,0 l/m² 0 min 0 min 0 W/m² 12,9 km/h (3 Bft) 94,44 %
03.01.2026 17:34 0,3 °C -0,6 °C -3,3 °C 97 % 1004,9 hPa 0,0 l/m² 0 min 0 min 0 W/m² 12,9 km/h (3 Bft) 92,50 %
03.01.2026 17:36 0,3 °C -0,6 °C -3,3 °C 97 % 1004,9 hPa 0,0 l/m² 0 min 0 min 0 W/m² 12,9 km/h (3 Bft) 93,48 %
03.01.2026 17:38 0,3 °C -0,6 °C -3,3 °C 97 % 1005,0 hPa 0,0 l/m² 0 min 0 min 0 W/m² 12,9 km/h (3 Bft) 96,30 %
03.01.2026 17:40 0,3 °C -0,6 °C -3,3 °C 97 % 1005,0 hPa 0,0 l/m² 0 min 0 min 0 W/m² 12,9 km/h (3 Bft) 95,92 %
03.01.2026 17:42 0,3 °C -0,6 °C -3,3 °C 97 % 1005,0 hPa 0,0 l/m² 0 min 0 min 0 W/m² 9,7 km/h (2 Bft) 100,00 %
03.01.2026 17:44 0,3 °C -0,6 °C -3,3 °C 97 % 1004,9 hPa 0,0 l/m² 0 min 0 min 0 W/m² 16,1 km/h (3 Bft) 96,23 %
03.01.2026 17:46 0,3 °C -0,6 °C -3,3 °C 97 % 1005,0 hPa 0,0 l/m² 0 min 0 min 0 W/m² 12,9 km/h (3 Bft) 97,50 %
03.01.2026 17:48 0,3 °C -0,6 °C -3,3 °C 97 % 1005,0 hPa 0,0 l/m² 0 min 0 min 0 W/m² 12,9 km/h (3 Bft) 97,92 %
03.01.2026 17:50 0,3 °C -0,6 °C -3,3 °C 97 % 1004,9 hPa 0,0 l/m² 0 min 0 min 0 W/m² 12,9 km/h (3 Bft) 96,23 %
03.01.2026 17:52 0,3 °C -0,6 °C -3,3 °C 97 % 1005,0 hPa 0,0 l/m² 0 min 0 min 0 W/m² 19,3 km/h (3 Bft) 92,11 %
03.01.2026 17:54 0,3 °C -0,6 °C -3,3 °C 97 % 1005,0 hPa 0,0 l/m² 0 min 0 min 0 W/m² 12,9 km/h (3 Bft) 97,96 %
03.01.2026 17:56 0,3 °C -0,6 °C -3,3 °C 97 % 1005,0 hPa 0,0 l/m² 0 min 0 min 0 W/m² 12,9 km/h (3 Bft) 96,23 %
03.01.2026 17:58 0,3 °C -0,6 °C -3,3 °C 97 % 1005,0 hPa 0,0 l/m² 0 min 0 min 0 W/m² 12,9 km/h (3 Bft) 94,00 %
03.01.2026 18:00 0,3 °C -0,6 °C -3,3 °C 97 % 1005,1 hPa 0,0 l/m² 0 min 0 min 0 W/m² 16,1 km/h (3 Bft) 100,00 %
03.01.2026 18:02 0,3 °C -0,6 °C -3,3 °C 97 % 1005,1 hPa 0,0 l/m² 0 min 0 min 0 W/m² 12,9 km/h (3 Bft) 93,75 %
03.01.2026 18:04 0,3 °C -0,6 °C -3,3 °C 97 % 1005,2 hPa 0,0 l/m² 0 min 0 min 0 W/m² 12,9 km/h (3 Bft) 98,18 %
03.01.2026 18:08 0,3 °C 0,0 °C -3,3 °C 97 % 1005,2 hPa 0,0 l/m² 0 min 0 min 0 W/m² 19,3 km/h (3 Bft) 97,70 %
03.01.2026 18:12 0,3 °C 0,0 °C -3,3 °C 97 % 1005,2 hPa 0,0 l/m² 0 min 0 min 0 W/m² 12,9 km/h (3 Bft) 95,74 %
03.01.2026 18:14 0,3 °C 0,0 °C -3,3 °C 97 % 1005,4 hPa 0,0 l/m² 0 min 0 min 0 W/m² 12,9 km/h (3 Bft) 97,44 %
03.01.2026 18:16 0,3 °C 0,0 °C -3,3 °C 97 % 1005,4 hPa 0,0 l/m² 0 min 0 min 0 W/m² 16,1 km/h (3 Bft) 97,92 %
03.01.2026 18:18 0,4 °C 0,0 °C -3,3 °C 97 % 1005,4 hPa 0,0 l/m² 0 min 0 min 0 W/m² 12,9 km/h (3 Bft) 93,62 %
03.01.2026 18:20 0,4 °C 0,0 °C -3,3 °C 97 % 1005,4 hPa 0,0 l/m² 0 min 0 min 0 W/m² 16,1 km/h (3 Bft) 95,45 %
03.01.2026 18:22 0,3 °C 0,0 °C -3,3 °C 97 % 1005,4 hPa 0,0 l/m² 0 min 0 min 0 W/m² 12,9 km/h (3 Bft) 100,00 %
03.01.2026 18:24 0,4 °C 0,0 °C -3,3 °C 97 % 1005,5 hPa 0,0 l/m² 0 min 0 min 0 W/m² 6,4 km/h (2 Bft) 97,87 %
03.01.2026 18:26 0,4 °C 0,0 °C -3,3 °C 97 % 1005,6 hPa 0,0 l/m² 0 min 0 min 0 W/m² 22,5 km/h (4 Bft) 95,35 %
03.01.2026 18:28 0,4 °C 0,0 °C -3,3 °C 97 % 1005,5 hPa 0,0 l/m² 0 min 0 min 0 W/m² 12,9 km/h (3 Bft) 98,00 %
03.01.2026 18:30 0,4 °C 0,0 °C -3,3 °C 97 % 1005,5 hPa 0,0 l/m² 0 min 0 min 0 W/m² 16,1 km/h (3 Bft) 97,87 %
03.01.2026 18:32 0,4 °C 0,0 °C -3,3 °C 97 % 1005,6 hPa 0,0 l/m² 0 min 0 min 0 W/m² 16,1 km/h (3 Bft) 100,00 %
03.01.2026 18:34 0,4 °C 0,0 °C -3,3 °C 97 % 1005,6 hPa 0,0 l/m² 0 min 0 min 0 W/m² 6,4 km/h (2 Bft) 97,67 %
03.01.2026 18:36 0,4 °C 0,0 °C -3,3 °C 97 % 1005,5 hPa 0,0 l/m² 0 min 0 min 0 W/m² 22,5 km/h (4 Bft) 100,00 %
03.01.2026 18:38 0,4 °C 0,0 °C -3,3 °C 97 % 1005,6 hPa 0,0 l/m² 0 min 0 min 0 W/m² 12,9 km/h (3 Bft) 97,67 %
03.01.2026 18:40 0,4 °C 0,0 °C -3,3 °C 97 % 1005,6 hPa 0,0 l/m² 0 min 0 min 0 W/m² 16,1 km/h (3 Bft) 100,00 %
03.01.2026 18:44 0,4 °C 0,0 °C -3,3 °C 97 % 1005,5 hPa 0,0 l/m² 0 min 0 min 0 W/m² 12,9 km/h (3 Bft) 97,85 %
03.01.2026 18:48 0,4 °C 0,0 °C -3,3 °C 97 % 1005,6 hPa 0,0 l/m² 0 min 0 min 0 W/m² 22,5 km/h (4 Bft) 97,85 %
03.01.2026 18:50 0,4 °C 0,0 °C -3,3 °C 97 % 1005,6 hPa 0,0 l/m² 0 min 0 min 0 W/m² 9,7 km/h (2 Bft) 97,92 %
03.01.2026 18:54 0,4 °C 0,0 °C -3,3 °C 97 % 1005,6 hPa 0,0 l/m² 0 min 0 min 0 W/m² 12,9 km/h (3 Bft) 95,83 %
03.01.2026 18:58 0,4 °C 0,0 °C -3,3 °C 97 % 1005,6 hPa 0,0 l/m² 0 min 0 min 0 W/m² 16,1 km/h (3 Bft) 96,88 %
03.01.2026 19:02 0,4 °C 0,0 °C -3,3 °C 97 % 1005,6 hPa 0,0 l/m² 0 min 0 min 0 W/m² 16,1 km/h (3 Bft) 95,74 %
03.01.2026 19:05 0,4 °C 0,0 °C -3,3 °C 97 % 1005,7 hPa 0,0 l/m² 0 min 0 min 0 W/m² 12,9 km/h (3 Bft) 91,49 %
03.01.2026 19:14 0,3 °C 0,0 °C -3,3 °C 97 % 1005,8 hPa 0,0 l/m² 0 min 0 min 0 W/m² 9,7 km/h (2 Bft) 94,44 %
03.01.2026 19:18 0,3 °C 0,0 °C -3,3 °C 97 % 1005,8 hPa 0,0 l/m² 0 min 0 min 0 W/m² 9,7 km/h (2 Bft) 93,75 %
03.01.2026 19:22 0,3 °C 0,0 °C -3,3 °C 97 % 1005,8 hPa 0,0 l/m² 0 min 0 min 0 W/m² 12,9 km/h (3 Bft) 92,68 %
03.01.2026 19:24 0,3 °C 0,0 °C -3,3 °C 97 % 1005,8 hPa 0,0 l/m² 0 min 0 min 0 W/m² 6,4 km/h (2 Bft) 94,44 %
03.01.2026 19:28 0,3 °C 0,0 °C -3,3 °C 97 % 1005,9 hPa 0,0 l/m² 0 min 0 min 0 W/m² 6,4 km/h (2 Bft) 97,85 %
03.01.2026 19:30 0,3 °C -0,6 °C -3,3 °C 97 % 1005,9 hPa 0,0 l/m² 0 min 0 min 0 W/m² 6,4 km/h (2 Bft) 100,00 %
03.01.2026 19:34 0,3 °C 0,0 °C -3,3 °C 97 % 1006,0 hPa 0,0 l/m² 0 min 0 min 0 W/m² 19,3 km/h (3 Bft) 100,00 %
03.01.2026 19:35 0,3 °C 0,0 °C -3,3 °C 97 % 1006,0 hPa 0,0 l/m² 0 min 0 min 0 W/m² 9,7 km/h (2 Bft) 100,00 %
03.01.2026 19:42 0,2 °C -0,6 °C -3,3 °C 97 % 1006,0 hPa 0,0 l/m² 0 min 0 min 0 W/m² 19,3 km/h (3 Bft) 98,31 %
03.01.2026 19:46 0,2 °C -0,6 °C -3,3 °C 97 % 1006,1 hPa 0,0 l/m² 0 min 0 min 0 W/m² 16,1 km/h (3 Bft) 98,06 %
03.01.2026 19:50 0,2 °C -0,6 °C -3,3 °C 97 % 1006,1 hPa 0,0 l/m² 0 min 0 min 0 W/m² 12,9 km/h (3 Bft) 100,00 %
03.01.2026 19:52 0,2 °C -0,6 °C -3,3 °C 97 % 1006,1 hPa 0,0 l/m² 0 min 0 min 0 W/m² 9,7 km/h (2 Bft) 94,44 %
03.01.2026 19:54 0,2 °C -0,6 °C -3,3 °C 97 % 1006,0 hPa 0,0 l/m² 0 min 0 min 0 W/m² 12,9 km/h (3 Bft) 100,00 %
03.01.2026 19:56 0,1 °C -0,6 °C -3,3 °C 97 % 1006,0 hPa 0,0 l/m² 0 min 0 min 0 W/m² 12,9 km/h (3 Bft) 100,00 %
03.01.2026 19:58 0,1 °C -0,6 °C -3,3 °C 97 % 1006,0 hPa 0,0 l/m² 0 min 0 min 0 W/m² 16,1 km/h (3 Bft) 97,92 %
03.01.2026 20:02 0,1 °C -0,6 °C -3,3 °C 96 % 1006,0 hPa 0,0 l/m² 0 min 0 min 0 W/m² 16,1 km/h (3 Bft) 100,00 %
03.01.2026 20:04 0,1 °C -0,6 °C -3,3 °C 96 % 1006,1 hPa 0,0 l/m² 0 min 0 min 0 W/m² 16,1 km/h (3 Bft) 93,48 %
03.01.2026 20:08 0,1 °C -0,6 °C -3,3 °C 96 % 1006,1 hPa 0,0 l/m² 0 min 0 min 0 W/m² 16,1 km/h (3 Bft) 100,00 %
03.01.2026 20:10 0,1 °C -0,6 °C -3,3 °C 96 % 1006,1 hPa 0,0 l/m² 0 min 0 min 0 W/m² 12,9 km/h (3 Bft) 94,74 %
03.01.2026 20:12 0,1 °C -0,6 °C -3,3 °C 96 % 1006,2 hPa 0,0 l/m² 0 min 0 min 0 W/m² 9,7 km/h (2 Bft) 100,00 %
03.01.2026 20:14 0,1 °C -0,6 °C -3,3 °C 96 % 1006,2 hPa 0,0 l/m² 0 min 0 min 0 W/m² 9,7 km/h (2 Bft) 100,00 %
03.01.2026 20:18 0,1 °C -0,6 °C -3,3 °C 96 % 1006,2 hPa 0,0 l/m² 0 min 0 min 0 W/m² 19,3 km/h (3 Bft) 98,96 %
03.01.2026 20:20 0,1 °C -0,6 °C -3,3 °C 96 % 1006,3 hPa 0,0 l/m² 0 min 0 min 0 W/m² 6,4 km/h (2 Bft) 100,00 %
03.01.2026 20:22 0,1 °C -0,6 °C -3,3 °C 96 % 1006,2 hPa 0,0 l/m² 0 min 0 min 0 W/m² 12,9 km/h (3 Bft) 97,30 %
03.01.2026 20:24 0,1 °C -0,6 °C -3,3 °C 96 % 1006,3 hPa 0,0 l/m² 0 min 0 min 0 W/m² 12,9 km/h (3 Bft) 100,00 %
03.01.2026 20:26 0,1 °C -0,6 °C -3,3 °C 96 % 1006,3 hPa 0,0 l/m² 0 min 0 min 0 W/m² 3,2 km/h (1 Bft) 97,37 %
03.01.2026 20:28 0,1 °C -0,6 °C -3,3 °C 96 % 1006,3 hPa 0,0 l/m² 0 min 0 min 0 W/m² 12,9 km/h (3 Bft) 98,31 %
03.01.2026 20:30 0,1 °C -0,6 °C -3,3 °C 96 % 1006,4 hPa 0,0 l/m² 0 min 0 min 0 W/m² 12,9 km/h (3 Bft) 100,00 %
03.01.2026 20:32 0,1 °C -0,6 °C -3,3 °C 96 % 1006,4 hPa 0,0 l/m² 0 min 0 min 0 W/m² 12,9 km/h (3 Bft) 100,00 %
03.01.2026 20:34 0,1 °C -0,6 °C -3,3 °C 96 % 1006,6 hPa 0,0 l/m² 0 min 0 min 0 W/m² 9,7 km/h (2 Bft) 100,00 %
03.01.2026 20:36 0,1 °C -0,6 °C -3,3 °C 96 % 1006,7 hPa 0,0 l/m² 0 min 0 min 0 W/m² 22,5 km/h (4 Bft) 100,00 %
03.01.2026 20:38 0,2 °C -0,6 °C -3,3 °C 97 % 1006,7 hPa 0,0 l/m² 0 min 0 min 0 W/m² 6,4 km/h (2 Bft) 100,00 %
03.01.2026 20:40 0,2 °C -0,6 °C -3,3 °C 97 % 1006,8 hPa 0,0 l/m² 0 min 0 min 0 W/m² 12,9 km/h (3 Bft) 100,00 %
03.01.2026 20:42 0,2 °C -0,6 °C -3,3 °C 97 % 1006,9 hPa 0,0 l/m² 0 min 0 min 0 W/m² 9,7 km/h (2 Bft) 98,28 %
03.01.2026 20:44 0,2 °C -0,6 °C -3,3 °C 97 % 1007,0 hPa 0,0 l/m² 0 min 0 min 0 W/m² 12,9 km/h (3 Bft) 97,83 %
03.01.2026 20:46 0,2 °C -0,6 °C -3,3 °C 97 % 1007,0 hPa 0,0 l/m² 0 min 0 min 0 W/m² 6,4 km/h (2 Bft) 93,75 %
03.01.2026 20:48 0,2 °C 0,0 °C -3,3 °C 97 % 1007,0 hPa 0,0 l/m² 0 min 0 min 0 W/m² 6,4 km/h (2 Bft) 95,74 %
03.01.2026 20:50 0,2 °C 0,0 °C -3,3 °C 97 % 1006,9 hPa 0,0 l/m² 0 min 0 min 0 W/m² 6,4 km/h (2 Bft) 95,35 %
03.01.2026 20:52 0,2 °C 0,0 °C -3,3 °C 97 % 1006,8 hPa 0,0 l/m² 0 min 0 min 0 W/m² 19,3 km/h (3 Bft) 92,00 %
03.01.2026 20:54 0,2 °C -0,6 °C -3,3 °C 97 % 1006,8 hPa 0,0 l/m² 0 min 0 min 0 W/m² 6,4 km/h (2 Bft) 95,45 %
03.01.2026 20:56 0,2 °C -0,6 °C -3,3 °C 97 % 1006,8 hPa 0,0 l/m² 0 min 0 min 0 W/m² 6,4 km/h (2 Bft) 94,00 %
03.01.2026 20:58 0,2 °C -0,6 °C -3,3 °C 97 % 1006,8 hPa 0,0 l/m² 0 min 0 min 0 W/m² 6,4 km/h (2 Bft) 93,33 %
03.01.2026 21:00 0,2 °C -0,6 °C -3,3 °C 97 % 1006,8 hPa 0,0 l/m² 0 min 0 min 0 W/m² 9,7 km/h (2 Bft) 93,75 %
03.01.2026 21:02 0,2 °C -0,6 °C -3,3 °C 97 % 1006,8 hPa 0,0 l/m² 0 min 0 min 0 W/m² 3,2 km/h (1 Bft) 95,83 %
03.01.2026 21:06 0,2 °C -0,6 °C -3,3 °C 97 % 1006,8 hPa 0,0 l/m² 0 min 0 min 0 W/m² 9,7 km/h (2 Bft) 90,00 %
03.01.2026 21:08 0,2 °C -0,6 °C -3,3 °C 97 % 1006,9 hPa 0,0 l/m² 0 min 0 min 0 W/m² 12,9 km/h (3 Bft) 93,62 %
03.01.2026 21:10 0,2 °C -0,6 °C -3,3 °C 97 % 1006,7 hPa 0,0 l/m² 0 min 0 min 0 W/m² 9,7 km/h (2 Bft) 92,59 %
03.01.2026 21:14 0,1 °C -0,6 °C -3,3 °C 97 % 1006,7 hPa 0,0 l/m² 0 min 0 min 0 W/m² 12,9 km/h (3 Bft) 93,48 %
03.01.2026 21:16 0,1 °C -0,6 °C -3,3 °C 96 % 1006,7 hPa 0,0 l/m² 0 min 0 min 0 W/m² 6,4 km/h (2 Bft) 91,67 %
03.01.2026 21:18 0,1 °C -0,6 °C -3,3 °C 96 % 1006,6 hPa 0,0 l/m² 0 min 0 min 0 W/m² 6,4 km/h (2 Bft) 94,12 %
03.01.2026 21:20 0,1 °C -0,6 °C -3,3 °C 96 % 1006,7 hPa 0,0 l/m² 0 min 0 min 0 W/m² 6,4 km/h (2 Bft) 95,56 %
03.01.2026 21:24 0,1 °C -0,6 °C -3,3 °C 96 % 1006,9 hPa 0,0 l/m² 0 min 0 min 0 W/m² 9,7 km/h (2 Bft) 92,55 %
03.01.2026 21:26 0,1 °C -0,6 °C -3,3 °C 96 % 1006,9 hPa 0,0 l/m² 0 min 0 min 0 W/m² 6,4 km/h (2 Bft) 95,92 %
03.01.2026 21:28 0,1 °C -0,6 °C -3,3 °C 97 % 1006,9 hPa 0,0 l/m² 0 min 0 min 0 W/m² 3,2 km/h (1 Bft) 95,56 %
03.01.2026 21:30 0,1 °C -0,6 °C -3,3 °C 97 % 1006,9 hPa 0,0 l/m² 0 min 0 min 0 W/m² 16,1 km/h (3 Bft) 93,62 %
03.01.2026 21:32 0,0 °C -0,6 °C -3,3 °C 97 % 1006,8 hPa 0,0 l/m² 0 min 0 min 0 W/m² 9,7 km/h (2 Bft) 95,83 %
03.01.2026 21:34 0,0 °C -0,6 °C -3,3 °C 97 % 1006,8 hPa 0,0 l/m² 0 min 0 min 0 W/m² 6,4 km/h (2 Bft) 95,24 %
03.01.2026 21:36 0,0 °C -0,6 °C -3,3 °C 97 % 1006,7 hPa 0,0 l/m² 0 min 0 min 0 W/m² 3,2 km/h (1 Bft) 98,08 %
03.01.2026 21:38 0,0 °C -0,6 °C -3,3 °C 97 % 1006,7 hPa 0,0 l/m² 0 min 0 min 0 W/m² 16,1 km/h (3 Bft) 95,74 %
03.01.2026 21:40 0,0 °C -0,6 °C -3,3 °C 97 % 1006,7 hPa 0,0 l/m² 0 min 0 min 0 W/m² 6,4 km/h (2 Bft) 97,87 %
03.01.2026 21:42 0,0 °C -0,6 °C -3,3 °C 97 % 1006,7 hPa 0,0 l/m² 0 min 0 min 0 W/m² 9,7 km/h (2 Bft) 97,83 %
03.01.2026 21:44 0,0 °C -0,6 °C -3,3 °C 97 % 1006,7 hPa 0,0 l/m² 0 min 0 min 0 W/m² 12,9 km/h (3 Bft) 93,62 %
03.01.2026 21:46 0,0 °C -0,6 °C -3,3 °C 97 % 1006,8 hPa 0,0 l/m² 0 min 0 min 0 W/m² 12,9 km/h (3 Bft) 95,74 %
03.01.2026 21:48 0,0 °C -0,6 °C -3,3 °C 97 % 1006,8 hPa 0,0 l/m² 0 min 0 min 0 W/m² 9,7 km/h (2 Bft) 97,87 %
03.01.2026 21:50 0,0 °C -0,6 °C -3,3 °C 97 % 1006,8 hPa 0,0 l/m² 0 min 0 min 0 W/m² 9,7 km/h (2 Bft) 97,73 %
03.01.2026 21:52 0,0 °C -0,6 °C -3,3 °C 97 % 1006,8 hPa 0,0 l/m² 0 min 0 min 0 W/m² 12,9 km/h (3 Bft) 100,00 %
03.01.2026 21:54 0,1 °C -0,6 °C -3,3 °C 97 % 1006,9 hPa 0,0 l/m² 0 min 0 min 0 W/m² 3,2 km/h (1 Bft) 100,00 %
03.01.2026 21:58 0,1 °C -0,6 °C -3,3 °C 97 % 1007,1 hPa 0,0 l/m² 0 min 0 min 0 W/m² 6,4 km/h (2 Bft) 98,91 %
03.01.2026 22:00 0,1 °C -0,6 °C -3,3 °C 97 % 1007,1 hPa 0,0 l/m² 0 min 0 min 0 W/m² 12,9 km/h (3 Bft) 100,00 %
03.01.2026 22:02 0,1 °C -0,6 °C -3,3 °C 97 % 1007,2 hPa 0,0 l/m² 0 min 0 min 0 W/m² 6,4 km/h (2 Bft) 100,00 %
03.01.2026 22:04 0,1 °C -0,6 °C -3,3 °C 97 % 1007,2 hPa 0,0 l/m² 0 min 2 min 0 W/m² 6,4 km/h (2 Bft) 100,00 %
03.01.2026 22:10 0,1 °C -0,6 °C -3,3 °C 97 % 1007,1 hPa 0,0 l/m² 0 min 0 min 0 W/m² 3,2 km/h (1 Bft) 98,51 %
03.01.2026 22:12 0,2 °C -0,6 °C -3,3 °C 97 % 1007,2 hPa 0,0 l/m² 0 min 0 min 0 W/m² 12,9 km/h (3 Bft) 100,00 %
03.01.2026 22:14 0,2 °C -0,6 °C -3,3 °C 97 % 1007,2 hPa 0,0 l/m² 0 min 0 min 0 W/m² 3,2 km/h (1 Bft) 100,00 %
03.01.2026 22:16 0,2 °C -0,6 °C -3,3 °C 97 % 1007,2 hPa 0,0 l/m² 0 min 0 min 0 W/m² 6,4 km/h (2 Bft) 100,00 %
03.01.2026 22:20 0,2 °C -0,6 °C -3,3 °C 97 % 1007,2 hPa 0,0 l/m² 0 min 0 min 0 W/m² 6,4 km/h (2 Bft) 100,00 %
03.01.2026 22:22 0,2 °C -0,6 °C -3,3 °C 97 % 1007,2 hPa 0,0 l/m² 0 min 0 min 0 W/m² 12,9 km/h (3 Bft) 100,00 %
03.01.2026 22:24 0,2 °C -0,6 °C -3,3 °C 97 % 1007,2 hPa 0,0 l/m² 0 min 0 min 0 W/m² 3,2 km/h (1 Bft) 100,00 %
03.01.2026 22:26 0,2 °C -0,6 °C -3,3 °C 97 % 1007,2 hPa 0,0 l/m² 0 min 0 min 0 W/m² 6,4 km/h (2 Bft) 100,00 %
03.01.2026 22:28 0,2 °C -0,6 °C -3,3 °C 97 % 1007,3 hPa 0,0 l/m² 0 min 0 min 0 W/m² 3,2 km/h (1 Bft) 100,00 %
03.01.2026 22:32 0,2 °C -0,6 °C -3,3 °C 97 % 1007,3 hPa 0,0 l/m² 0 min 0 min 0 W/m² 6,4 km/h (2 Bft) 100,00 %
03.01.2026 22:34 0,2 °C -0,6 °C -3,3 °C 97 % 1007,2 hPa 0,0 l/m² 0 min 0 min 0 W/m² 3,2 km/h (1 Bft) 97,14 %
03.01.2026 22:38 0,1 °C -0,6 °C -3,3 °C 97 % 1007,3 hPa 0,0 l/m² 0 min 0 min 0 W/m² 12,9 km/h (3 Bft) 98,10 %
03.01.2026 22:42 0,1 °C -0,6 °C -3,3 °C 97 % 1007,3 hPa 0,0 l/m² 0 min 0 min 0 W/m² 9,7 km/h (2 Bft) 97,75 %
03.01.2026 22:44 0,1 °C -0,6 °C -3,3 °C 97 % 1007,4 hPa 0,0 l/m² 0 min 0 min 0 W/m² 9,7 km/h (2 Bft) 97,96 %
03.01.2026 22:46 0,1 °C -0,6 °C -3,3 °C 97 % 1007,4 hPa 0,0 l/m² 0 min 0 min 0 W/m² 3,2 km/h (1 Bft) 97,96 %
03.01.2026 22:48 0,1 °C -0,6 °C -3,3 °C 97 % 1007,4 hPa 0,0 l/m² 0 min 0 min 0 W/m² 6,4 km/h (2 Bft) 94,44 %
03.01.2026 22:50 0,1 °C -0,6 °C -3,3 °C 97 % 1007,4 hPa 0,0 l/m² 0 min 0 min 0 W/m² 3,2 km/h (1 Bft) 94,74 %
03.01.2026 22:52 0,1 °C -0,6 °C -3,3 °C 97 % 1007,5 hPa 0,0 l/m² 0 min 0 min 0 W/m² 3,2 km/h (1 Bft) 93,75 %
03.01.2026 22:54 0,1 °C -0,6 °C -3,3 °C 97 % 1007,5 hPa 0,0 l/m² 0 min 0 min 0 W/m² 3,2 km/h (1 Bft) 97,22 %
03.01.2026 22:56 0,1 °C -0,6 °C -3,3 °C 97 % 1007,5 hPa 0,0 l/m² 0 min 0 min 0 W/m² 9,7 km/h (2 Bft) 98,04 %
03.01.2026 22:58 0,1 °C -0,6 °C -3,3 °C 97 % 1007,5 hPa 0,0 l/m² 0 min 0 min 0 W/m² 3,2 km/h (1 Bft) 93,33 %
03.01.2026 23:00 0,1 °C -0,6 °C -3,3 °C 97 % 1007,4 hPa 0,0 l/m² 0 min 0 min 0 W/m² 6,4 km/h (2 Bft) 98,08 %
03.01.2026 23:02 0,1 °C -0,6 °C -3,3 °C 97 % 1007,3 hPa 0,0 l/m² 0 min 0 min 0 W/m² 3,2 km/h (1 Bft) 95,45 %
03.01.2026 23:04 0,1 °C -0,6 °C -3,3 °C 97 % 1007,3 hPa 0,0 l/m² 0 min 0 min 0 W/m² 3,2 km/h (1 Bft) 98,00 %
03.01.2026 23:08 0,2 °C -0,6 °C -3,3 °C 97 % 1007,4 hPa 0,0 l/m² 0 min 0 min 0 W/m² 9,7 km/h (2 Bft) 98,90 %
03.01.2026 23:12 0,1 °C -0,6 °C -3,3 °C 97 % 1007,5 hPa 0,0 l/m² 0 min 0 min 0 W/m² 3,2 km/h (1 Bft) 100,00 %
03.01.2026 23:14 0,1 °C -0,6 °C -3,3 °C 97 % 1007,5 hPa 0,0 l/m² 0 min 0 min 0 W/m² 3,2 km/h (1 Bft) 100,00 %
03.01.2026 23:16 0,2 °C -0,6 °C -3,3 °C 97 % 1007,5 hPa 0,0 l/m² 0 min 0 min 0 W/m² 6,4 km/h (2 Bft) 98,00 %
03.01.2026 23:18 0,2 °C -0,6 °C -3,3 °C 97 % 1007,5 hPa 0,0 l/m² 0 min 0 min 0 W/m² 3,2 km/h (1 Bft) 95,45 %
03.01.2026 23:20 0,2 °C -0,6 °C -3,3 °C 97 % 1007,5 hPa 0,0 l/m² 0 min 0 min 0 W/m² 6,4 km/h (2 Bft) 98,00 %
03.01.2026 23:22 0,2 °C -0,6 °C -3,3 °C 97 % 1007,5 hPa 0,0 l/m² 0 min 0 min 0 W/m² 9,7 km/h (2 Bft) 100,00 %
03.01.2026 23:24 0,2 °C -0,6 °C -3,3 °C 97 % 1007,6 hPa 0,0 l/m² 0 min 0 min 0 W/m² 6,4 km/h (2 Bft) 100,00 %
03.01.2026 23:26 0,2 °C -0,6 °C -3,3 °C 97 % 1007,5 hPa 0,0 l/m² 0 min 0 min 0 W/m² 3,2 km/h (1 Bft) 100,00 %
03.01.2026 23:28 0,2 °C -0,6 °C -3,3 °C 97 % 1007,6 hPa 0,0 l/m² 0 min 0 min 0 W/m² 3,2 km/h (1 Bft) 96,15 %
03.01.2026 23:30 0,2 °C -0,6 °C -3,3 °C 97 % 1007,5 hPa 0,0 l/m² 0 min 0 min 0 W/m² 6,4 km/h (2 Bft) 97,22 %
03.01.2026 23:32 0,2 °C -0,6 °C -3,3 °C 97 % 1007,5 hPa 0,0 l/m² 0 min 0 min 0 W/m² 3,2 km/h (1 Bft) 96,30 %
03.01.2026 23:34 0,2 °C -0,6 °C -3,3 °C 97 % 1007,5 hPa 0,0 l/m² 0 min 0 min 0 W/m² 3,2 km/h (1 Bft) 97,83 %
03.01.2026 23:38 0,2 °C -0,6 °C -3,3 °C 97 % 1007,5 hPa 0,0 l/m² 0 min 0 min 0 W/m² 6,4 km/h (2 Bft) 96,94 %
03.01.2026 23:40 0,2 °C -0,6 °C -3,3 °C 97 % 1007,5 hPa 0,0 l/m² 0 min 0 min 0 W/m² 6,4 km/h (2 Bft) 97,22 %
03.01.2026 23:42 0,2 °C -0,6 °C -3,3 °C 97 % 1007,4 hPa 0,0 l/m² 0 min 0 min 0 W/m² 9,7 km/h (2 Bft) 93,10 %
03.01.2026 23:44 0,2 °C -0,6 °C -3,3 °C 97 % 1007,3 hPa 0,0 l/m² 0 min 0 min 0 W/m² 3,2 km/h (1 Bft) 70,45 %
03.01.2026 23:46 0,2 °C -0,6 °C -3,3 °C 97 % 1007,4 hPa 0,0 l/m² 0 min 0 min 0 W/m² 6,4 km/h (2 Bft) 80,49 %
03.01.2026 23:48 0,2 °C -0,6 °C -3,3 °C 97 % 1007,3 hPa 0,0 l/m² 0 min 0 min 0 W/m² 3,2 km/h (1 Bft) 95,24 %
03.01.2026 23:50 0,2 °C -0,6 °C -3,3 °C 97 % 1007,4 hPa 0,0 l/m² 0 min 0 min 0 W/m² 6,4 km/h (2 Bft) 96,15 %
03.01.2026 23:52 0,2 °C -0,6 °C -3,3 °C 97 % 1007,4 hPa 0,0 l/m² 0 min 0 min 0 W/m² 3,2 km/h (1 Bft) 97,62 %
03.01.2026 23:54 0,2 °C -0,6 °C -3,3 °C 97 % 1007,4 hPa 0,0 l/m² 0 min 0 min 0 W/m² 3,2 km/h (1 Bft) 94,00 %
03.01.2026 23:56 0,2 °C -0,6 °C -3,3 °C 97 % 1007,4 hPa 0,0 l/m² 0 min 0 min 0 W/m² 12,9 km/h (3 Bft) 95,83 %
03.01.2026 23:58 0,2 °C -0,6 °C -3,3 °C 97 % 1007,4 hPa 0,0 l/m² 0 min 0 min 0 W/m² 6,4 km/h (2 Bft) 95,35 %
_ Min-Zeit 04:04 03:34 01:54 08:06 14:25 - - - - 02:10 00:02
Minimum _ -0,3 °C -1,1 °C -3,9 °C 88 % 1002,0 hPa - - - - 3,2 km/h (1 Bft) 43,24 %
_ Max-Zeit 13:30 11:50 11:50 16:34 23:24 11:30 09:45 15:02 11:50 01:08 00:12
Maximum _ 1,3 °C 2,2 °C -2,2 °C 97 % 1007,6 hPa 0,2 l/m² 5 min 4 min 280 W/m² 45,1 km/h
SW (6 Bft)
100,00 %
Durchschnitt _ 0,4 °C -0,2 °C -3,3 °C 94 % 1003,9 hPa #1,4 l/m² #49 min. #8 min. 60 W/m² 15,6 km/h (3 Bft) 97,03 %
© 2026 W. Hausmann